Wetterdaten: Donnerstag, 30.04.2015
Datum Zeit Temp. Aussen +5cm Feuchte Auss Luftdruck Regen Sonnenschein Regendauer Solar Windben
30.04.2015 00:00 9,7 C 7,2 C 70 % 1013,2 hPa 0,0 l/m 0 min 0 min 0 W/m 16,7 km/h (3 Bft)
30.04.2015 00:02 9,7 C 7,8 C 70 % 1013,2 hPa 0,0 l/m 0 min 0 min 0 W/m 14,6 km/h (3 Bft)
30.04.2015 00:06 9,6 C 7,2 C 71 % 1013,3 hPa 0,0 l/m 0 min 0 min 0 W/m 14,6 km/h (3 Bft)
30.04.2015 00:08 9,6 C 7,2 C 71 % 1013,2 hPa 0,0 l/m 0 min 0 min 0 W/m 12,6 km/h (3 Bft)
30.04.2015 00:10 9,6 C 7,8 C 71 % 1013,2 hPa 0,0 l/m 0 min 0 min 0 W/m 14,6 km/h (3 Bft)
30.04.2015 00:12 9,6 C 7,8 C 71 % 1013,2 hPa 0,0 l/m 0 min 0 min 0 W/m 14,6 km/h (3 Bft)
30.04.2015 00:14 9,6 C 7,8 C 71 % 1013,2 hPa 0,0 l/m 0 min 0 min 0 W/m 12,6 km/h (3 Bft)
30.04.2015 00:16 9,6 C 7,8 C 71 % 1013,2 hPa 0,0 l/m 0 min 0 min 0 W/m 14,6 km/h (3 Bft)
30.04.2015 00:18 9,6 C 7,8 C 71 % 1013,2 hPa 0,0 l/m 0 min 0 min 0 W/m 12,6 km/h (3 Bft)
30.04.2015 00:20 9,6 C 7,8 C 71 % 1013,2 hPa 0,0 l/m 0 min 0 min 0 W/m 14,6 km/h (3 Bft)
30.04.2015 00:22 9,5 C 7,8 C 71 % 1013,2 hPa 0,0 l/m 0 min 0 min 0 W/m 12,6 km/h (3 Bft)
30.04.2015 00:24 9,5 C 7,8 C 71 % 1013,2 hPa 0,0 l/m 0 min 0 min 0 W/m 14,6 km/h (3 Bft)
30.04.2015 00:26 9,5 C 7,8 C 71 % 1013,2 hPa 0,0 l/m 0 min 0 min 0 W/m 14,6 km/h (3 Bft)
30.04.2015 00:28 9,5 C 7,8 C 71 % 1013,2 hPa 0,0 l/m 0 min 0 min 0 W/m 14,6 km/h (3 Bft)
30.04.2015 00:30 9,6 C 7,8 C 71 % 1013,2 hPa 0,0 l/m 0 min 0 min 0 W/m 14,6 km/h (3 Bft)
30.04.2015 00:32 9,6 C 7,8 C 72 % 1013,2 hPa 0,0 l/m 0 min 0 min 0 W/m 12,6 km/h (3 Bft)
30.04.2015 00:34 9,6 C 7,8 C 72 % 1013,2 hPa 0,0 l/m 0 min 0 min 0 W/m 14,6 km/h (3 Bft)
30.04.2015 00:36 9,6 C 7,8 C 72 % 1013,3 hPa 0,0 l/m 0 min 0 min 0 W/m 14,6 km/h (3 Bft)
30.04.2015 00:38 9,6 C 7,8 C 72 % 1013,2 hPa 0,0 l/m 0 min 0 min 0 W/m 16,7 km/h (3 Bft)
30.04.2015 00:40 9,6 C 7,8 C 72 % 1013,1 hPa 0,0 l/m 0 min 0 min 0 W/m 12,6 km/h (3 Bft)
30.04.2015 00:42 9,6 C 7,8 C 72 % 1013,1 hPa 0,0 l/m 0 min 0 min 0 W/m 12,6 km/h (3 Bft)
30.04.2015 00:44 9,7 C 7,8 C 72 % 1013,1 hPa 0,0 l/m 0 min 0 min 0 W/m 16,7 km/h (3 Bft)
30.04.2015 00:46 9,7 C 7,8 C 72 % 1013,1 hPa 0,0 l/m 0 min 0 min 0 W/m 14,6 km/h (3 Bft)
30.04.2015 00:48 9,7 C 7,8 C 72 % 1013,1 hPa 0,0 l/m 0 min 0 min 0 W/m 12,6 km/h (3 Bft)
30.04.2015 00:50 9,7 C 7,8 C 72 % 1013,1 hPa 0,0 l/m 0 min 0 min 0 W/m 18,8 km/h (3 Bft)
30.04.2015 00:52 9,7 C 7,8 C 72 % 1013,1 hPa 0,0 l/m 0 min 0 min 0 W/m 12,6 km/h (3 Bft)
30.04.2015 00:54 9,7 C 8,3 C 72 % 1013,2 hPa 0,0 l/m 0 min 0 min 0 W/m 8,4 km/h (2 Bft)
30.04.2015 00:56 9,8 C 8,3 C 72 % 1013,1 hPa 0,0 l/m 0 min 0 min 0 W/m 16,7 km/h (3 Bft)
30.04.2015 00:58 9,8 C 8,3 C 72 % 1013,2 hPa 0,0 l/m 0 min 0 min 0 W/m 14,6 km/h (3 Bft)
30.04.2015 01:00 9,8 C 8,3 C 71 % 1013,3 hPa 0,0 l/m 0 min 0 min 0 W/m 18,8 km/h (3 Bft)
30.04.2015 01:02 9,9 C 8,3 C 71 % 1013,5 hPa 0,0 l/m 0 min 0 min 0 W/m 18,8 km/h (3 Bft)
30.04.2015 01:04 9,9 C 8,3 C 71 % 1013,5 hPa 0,0 l/m 0 min 0 min 0 W/m 20,9 km/h (4 Bft)
30.04.2015 01:06 9,9 C 8,3 C 71 % 1013,5 hPa 0,0 l/m 0 min 0 min 0 W/m 10,5 km/h (2 Bft)
30.04.2015 01:08 10,0 C 8,3 C 71 % 1013,6 hPa 0,0 l/m 0 min 0 min 0 W/m 20,9 km/h (4 Bft)
30.04.2015 01:10 10,0 C 8,3 C 71 % 1013,6 hPa 0,0 l/m 0 min 0 min 0 W/m 29,3 km/h (5 Bft)
30.04.2015 01:12 10,1 C 8,3 C 71 % 1013,6 hPa 0,0 l/m 0 min 0 min 0 W/m 25,1 km/h (4 Bft)
30.04.2015 01:14 10,1 C 8,3 C 71 % 1013,6 hPa 0,0 l/m 0 min 0 min 0 W/m 23,0 km/h (4 Bft)
30.04.2015 01:16 10,1 C 8,3 C 71 % 1013,7 hPa 0,0 l/m 0 min 0 min 0 W/m 14,6 km/h (3 Bft)
30.04.2015 01:18 10,1 C 8,3 C 71 % 1013,7 hPa 0,0 l/m 0 min 0 min 0 W/m 14,6 km/h (3 Bft)
30.04.2015 01:20 10,1 C 7,8 C 71 % 1013,8 hPa 0,0 l/m 0 min 0 min 0 W/m 12,6 km/h (3 Bft)
30.04.2015 01:22 10,1 C 7,8 C 71 % 1013,8 hPa 0,0 l/m 0 min 0 min 0 W/m 14,6 km/h (3 Bft)
30.04.2015 01:24 10,1 C 7,8 C 71 % 1013,7 hPa 0,0 l/m 0 min 0 min 0 W/m 10,5 km/h (2 Bft)
30.04.2015 01:26 10,0 C 7,8 C 71 % 1013,8 hPa 0,0 l/m 0 min 0 min 0 W/m 12,6 km/h (3 Bft)
30.04.2015 01:28 10,0 C 7,8 C 71 % 1013,8 hPa 0,0 l/m 0 min 0 min 0 W/m 10,5 km/h (2 Bft)
30.04.2015 01:30 9,9 C 7,8 C 72 % 1013,9 hPa 0,0 l/m 0 min 0 min 0 W/m 12,6 km/h (3 Bft)
30.04.2015 01:32 9,9 C 7,8 C 72 % 1013,9 hPa 0,0 l/m 0 min 0 min 0 W/m 8,4 km/h (2 Bft)
30.04.2015 01:34 9,9 C 7,8 C 72 % 1013,8 hPa 0,0 l/m 0 min 0 min 0 W/m 6,3 km/h (2 Bft)
30.04.2015 01:36 9,9 C 7,8 C 72 % 1013,7 hPa 0,0 l/m 0 min 0 min 0 W/m 8,4 km/h (2 Bft)
30.04.2015 01:38 9,8 C 7,8 C 73 % 1013,7 hPa 0,0 l/m 0 min 0 min 0 W/m 4,2 km/h (1 Bft)
30.04.2015 01:40 9,8 C 7,8 C 73 % 1013,8 hPa 0,0 l/m 0 min 0 min 0 W/m 8,4 km/h (2 Bft)
30.04.2015 01:42 9,8 C 7,8 C 73 % 1013,8 hPa 0,0 l/m 0 min 0 min 0 W/m 10,5 km/h (2 Bft)
30.04.2015 01:44 9,8 C 7,8 C 74 % 1013,8 hPa 0,0 l/m 0 min 0 min 0 W/m 16,7 km/h (3 Bft)
30.04.2015 01:46 9,7 C 7,8 C 74 % 1013,8 hPa 0,0 l/m 0 min 0 min 0 W/m 8,4 km/h (2 Bft)
30.04.2015 01:48 9,7 C 7,8 C 74 % 1013,8 hPa 0,0 l/m 0 min 0 min 0 W/m 10,5 km/h (2 Bft)
30.04.2015 01:50 9,7 C 7,8 C 74 % 1013,7 hPa 0,0 l/m 0 min 0 min 0 W/m 8,4 km/h (2 Bft)
30.04.2015 01:52 9,7 C 7,8 C 75 % 1013,8 hPa 0,0 l/m 0 min 0 min 0 W/m 8,4 km/h (2 Bft)
30.04.2015 01:54 9,7 C 7,8 C 75 % 1013,8 hPa 0,0 l/m 0 min 0 min 0 W/m 8,4 km/h (2 Bft)
30.04.2015 01:56 9,6 C 7,8 C 75 % 1013,7 hPa 0,0 l/m 0 min 0 min 0 W/m 8,4 km/h (2 Bft)
30.04.2015 01:58 9,6 C 7,8 C 76 % 1013,7 hPa 0,0 l/m 0 min 0 min 0 W/m 8,4 km/h (2 Bft)
30.04.2015 02:00 9,6 C 7,8 C 76 % 1013,7 hPa 0,0 l/m 0 min 0 min 0 W/m 4,2 km/h (1 Bft)
30.04.2015 02:02 9,6 C 7,8 C 76 % 1013,7 hPa 0,0 l/m 0 min 0 min 0 W/m 2,1 km/h (1 Bft)
30.04.2015 02:04 9,6 C 7,8 C 76 % 1013,8 hPa 0,0 l/m 0 min 0 min 0 W/m 6,3 km/h (2 Bft)
30.04.2015 02:06 9,5 C 7,8 C 76 % 1013,7 hPa 0,0 l/m 0 min 0 min 0 W/m 6,3 km/h (2 Bft)
30.04.2015 02:08 9,5 C 7,8 C 76 % 1013,7 hPa 0,0 l/m 0 min 0 min 0 W/m 10,5 km/h (2 Bft)
30.04.2015 02:10 9,5 C 7,8 C 76 % 1013,6 hPa 0,0 l/m 0 min 0 min 0 W/m 10,5 km/h (2 Bft)
30.04.2015 02:12 9,4 C 7,8 C 77 % 1013,7 hPa 0,0 l/m 0 min 0 min 0 W/m 8,4 km/h (2 Bft)
30.04.2015 02:14 9,4 C 7,8 C 77 % 1013,7 hPa 0,0 l/m 0 min 0 min 0 W/m 6,3 km/h (2 Bft)
30.04.2015 02:16 9,4 C 7,8 C 77 % 1013,7 hPa 0,0 l/m 0 min 0 min 0 W/m 6,3 km/h (2 Bft)
30.04.2015 02:18 9,4 C 7,8 C 77 % 1013,7 hPa 0,0 l/m 0 min 0 min 0 W/m 6,3 km/h (2 Bft)
30.04.2015 02:20 9,4 C 7,8 C 77 % 1013,7 hPa 0,0 l/m 0 min 0 min 0 W/m 6,3 km/h (2 Bft)
30.04.2015 02:22 9,3 C 7,8 C 78 % 1013,7 hPa 0,0 l/m 0 min 0 min 0 W/m 10,5 km/h (2 Bft)
30.04.2015 02:24 9,3 C 7,8 C 78 % 1013,6 hPa 0,0 l/m 0 min 0 min 0 W/m 4,2 km/h (1 Bft)
30.04.2015 02:26 9,3 C 7,8 C 78 % 1013,6 hPa 0,0 l/m 0 min 0 min 0 W/m 4,2 km/h (1 Bft)
30.04.2015 02:28 9,3 C 7,8 C 78 % 1013,6 hPa 0,0 l/m 0 min 0 min 0 W/m 6,3 km/h (2 Bft)
30.04.2015 02:30 9,3 C 7,8 C 78 % 1013,6 hPa 0,0 l/m 0 min 0 min 0 W/m 6,3 km/h (2 Bft)
30.04.2015 02:32 9,2 C 7,8 C 79 % 1013,7 hPa 0,0 l/m 0 min 0 min 0 W/m 6,3 km/h (2 Bft)
30.04.2015 02:34 9,2 C 7,8 C 79 % 1013,7 hPa 0,0 l/m 0 min 0 min 0 W/m 6,3 km/h (2 Bft)
30.04.2015 02:36 9,2 C 7,8 C 79 % 1013,6 hPa 0,0 l/m 0 min 0 min 0 W/m 4,2 km/h (1 Bft)
30.04.2015 02:38 9,2 C 7,8 C 79 % 1013,6 hPa 0,0 l/m 0 min 0 min 0 W/m 4,2 km/h (1 Bft)
30.04.2015 02:40 9,2 C 7,8 C 79 % 1013,6 hPa 0,0 l/m 0 min 0 min 0 W/m 6,3 km/h (2 Bft)
30.04.2015 02:42 9,2 C 7,8 C 79 % 1013,6 hPa 0,0 l/m 0 min 0 min 0 W/m 4,2 km/h (1 Bft)
30.04.2015 02:44 9,2 C 7,8 C 79 % 1013,6 hPa 0,0 l/m 0 min 0 min 0 W/m 6,3 km/h (2 Bft)
30.04.2015 02:46 9,2 C 7,8 C 79 % 1013,6 hPa 0,0 l/m 0 min 0 min 0 W/m 6,3 km/h (2 Bft)
30.04.2015 02:48 9,1 C 7,8 C 79 % 1013,6 hPa 0,0 l/m 0 min 0 min 0 W/m 6,3 km/h (2 Bft)
30.04.2015 02:50 9,1 C 7,8 C 80 % 1013,6 hPa 0,0 l/m 0 min 0 min 0 W/m 8,4 km/h (2 Bft)
30.04.2015 02:52 9,1 C 7,8 C 80 % 1013,6 hPa 0,0 l/m 0 min 2 min 0 W/m 4,2 km/h (1 Bft)
30.04.2015 02:54 9,1 C 7,8 C 80 % 1013,5 hPa 0,0 l/m 0 min 2 min 0 W/m 4,2 km/h (1 Bft)
30.04.2015 02:56 9,1 C 7,8 C 80 % 1013,5 hPa 0,0 l/m 0 min 0 min 0 W/m 4,2 km/h (1 Bft)
30.04.2015 02:58 9,1 C 7,8 C 80 % 1013,5 hPa 0,0 l/m 0 min 2 min 0 W/m 4,2 km/h (1 Bft)
30.04.2015 03:00 9,1 C 7,8 C 80 % 1013,5 hPa 0,0 l/m 0 min 2 min 0 W/m 4,2 km/h (1 Bft)
30.04.2015 03:02 9,1 C 7,8 C 80 % 1013,5 hPa 0,0 l/m 0 min 0 min 0 W/m 8,4 km/h (2 Bft)
30.04.2015 03:04 9,1 C 7,8 C 80 % 1013,6 hPa 0,0 l/m 0 min 0 min 0 W/m 6,3 km/h (2 Bft)
30.04.2015 03:06 9,0 C 7,8 C 80 % 1013,5 hPa 0,0 l/m 0 min 0 min 0 W/m 6,3 km/h (2 Bft)
30.04.2015 03:08 9,0 C 7,8 C 80 % 1013,6 hPa 0,0 l/m 0 min 2 min 0 W/m 6,3 km/h (2 Bft)
30.04.2015 03:10 9,1 C 7,8 C 81 % 1013,5 hPa 0,0 l/m 0 min 2 min 0 W/m 6,3 km/h (2 Bft)
30.04.2015 03:12 9,0 C 7,8 C 81 % 1013,5 hPa 0,0 l/m 0 min 0 min 0 W/m 10,5 km/h (2 Bft)
30.04.2015 03:14 9,0 C 7,8 C 81 % 1013,4 hPa 0,0 l/m 0 min 0 min 0 W/m 8,4 km/h (2 Bft)
30.04.2015 03:16 9,0 C 7,8 C 81 % 1013,5 hPa 0,0 l/m 0 min 0 min 0 W/m 10,5 km/h (2 Bft)
30.04.2015 03:18 9,0 C 7,8 C 81 % 1013,5 hPa 0,0 l/m 0 min 0 min 0 W/m 8,4 km/h (2 Bft)
30.04.2015 03:20 9,0 C 7,8 C 81 % 1013,5 hPa 0,0 l/m 0 min 0 min 0 W/m 6,3 km/h (2 Bft)
30.04.2015 03:22 9,0 C 7,8 C 82 % 1013,5 hPa 0,0 l/m 0 min 2 min 0 W/m 8,4 km/h (2 Bft)
30.04.2015 03:24 9,0 C 7,8 C 82 % 1013,5 hPa 0,0 l/m 0 min 2 min 0 W/m 6,3 km/h (2 Bft)
30.04.2015 03:26 9,0 C 7,8 C 82 % 1013,5 hPa 0,0 l/m 0 min 2 min 0 W/m 10,5 km/h (2 Bft)
30.04.2015 03:28 9,0 C 7,8 C 82 % 1013,4 hPa 0,0 l/m 0 min 2 min 0 W/m 16,7 km/h (3 Bft)
30.04.2015 03:30 9,0 C 7,2 C 82 % 1013,4 hPa 0,0 l/m 0 min 0 min 0 W/m 16,7 km/h (3 Bft)
30.04.2015 03:32 9,0 C 7,2 C 82 % 1013,4 hPa 0,0 l/m 0 min 2 min 0 W/m 8,4 km/h (2 Bft)
30.04.2015 03:34 9,0 C 7,2 C 83 % 1013,4 hPa 0,0 l/m 0 min 2 min 0 W/m 6,3 km/h (2 Bft)
30.04.2015 03:36 9,0 C 7,2 C 83 % 1013,4 hPa 0,0 l/m 0 min 0 min 0 W/m 8,4 km/h (2 Bft)
30.04.2015 03:38 9,0 C 7,2 C 83 % 1013,4 hPa 0,0 l/m 0 min 0 min 0 W/m 10,5 km/h (2 Bft)
30.04.2015 03:40 9,0 C 7,2 C 83 % 1013,4 hPa 0,0 l/m 0 min 0 min 0 W/m 10,5 km/h (2 Bft)
30.04.2015 03:42 9,0 C 7,2 C 83 % 1013,5 hPa 0,0 l/m 0 min 0 min 0 W/m 10,5 km/h (2 Bft)
30.04.2015 03:44 8,9 C 7,2 C 83 % 1013,4 hPa 0,0 l/m 0 min 0 min 0 W/m 8,4 km/h (2 Bft)
30.04.2015 03:46 8,9 C 7,2 C 83 % 1013,5 hPa 0,0 l/m 0 min 2 min 0 W/m 8,4 km/h (2 Bft)
30.04.2015 03:48 8,9 C 7,2 C 84 % 1013,4 hPa 0,0 l/m 0 min 2 min 0 W/m 6,3 km/h (2 Bft)
30.04.2015 03:50 8,9 C 7,2 C 84 % 1013,4 hPa 0,0 l/m 0 min 2 min 0 W/m 6,3 km/h (2 Bft)
30.04.2015 03:52 8,9 C 7,2 C 84 % 1013,4 hPa 0,0 l/m 0 min 2 min 0 W/m 8,4 km/h (2 Bft)
30.04.2015 03:54 8,9 C 7,2 C 84 % 1013,4 hPa 0,0 l/m 0 min 2 min 0 W/m 8,4 km/h (2 Bft)
30.04.2015 03:56 8,9 C 7,2 C 84 % 1013,4 hPa 0,0 l/m 0 min 2 min 0 W/m 10,5 km/h (2 Bft)
30.04.2015 03:58 8,9 C 7,2 C 84 % 1013,4 hPa 0,0 l/m 0 min 2 min 0 W/m 10,5 km/h (2 Bft)
30.04.2015 04:00 8,9 C 7,2 C 84 % 1013,4 hPa 0,0 l/m 0 min 2 min 0 W/m 8,4 km/h (2 Bft)
30.04.2015 04:02 8,9 C 7,2 C 84 % 1013,3 hPa 0,0 l/m 0 min 2 min 0 W/m 6,3 km/h (2 Bft)
30.04.2015 04:04 8,9 C 7,2 C 85 % 1013,2 hPa 0,0 l/m 0 min 2 min 0 W/m 6,3 km/h (2 Bft)
30.04.2015 04:06 8,8 C 7,2 C 85 % 1013,2 hPa 0,0 l/m 0 min 2 min 0 W/m 12,6 km/h (3 Bft)
30.04.2015 04:08 8,8 C 7,2 C 85 % 1013,2 hPa 0,0 l/m 0 min 2 min 0 W/m 10,5 km/h (2 Bft)
30.04.2015 04:10 8,8 C 7,2 C 85 % 1013,2 hPa 0,0 l/m 0 min 2 min 0 W/m 8,4 km/h (2 Bft)
30.04.2015 04:12 8,8 C 7,2 C 85 % 1013,2 hPa 0,0 l/m 0 min 2 min 0 W/m 12,6 km/h (3 Bft)
30.04.2015 04:14 8,8 C 7,2 C 85 % 1013,2 hPa 0,0 l/m 0 min 0 min 0 W/m 12,6 km/h (3 Bft)
30.04.2015 04:16 8,8 C 7,2 C 85 % 1013,3 hPa 0,0 l/m 0 min 0 min 0 W/m 6,3 km/h (2 Bft)
30.04.2015 04:18 8,8 C 7,2 C 85 % 1013,2 hPa 0,0 l/m 0 min 0 min 0 W/m 12,6 km/h (3 Bft)
30.04.2015 04:20 8,8 C 7,2 C 86 % 1013,2 hPa 0,0 l/m 0 min 2 min 0 W/m 12,6 km/h (3 Bft)
30.04.2015 04:22 8,7 C 7,2 C 86 % 1013,2 hPa 0,0 l/m 0 min 0 min 0 W/m 12,6 km/h (3 Bft)
30.04.2015 04:24 8,7 C 7,2 C 86 % 1013,2 hPa 0,0 l/m 0 min 2 min 0 W/m 12,6 km/h (3 Bft)
30.04.2015 04:26 8,7 C 7,2 C 86 % 1013,1 hPa 0,0 l/m 0 min 2 min 0 W/m 8,4 km/h (2 Bft)
30.04.2015 04:28 8,7 C 7,2 C 86 % 1013,1 hPa 0,0 l/m 0 min 2 min 0 W/m 8,4 km/h (2 Bft)
30.04.2015 04:30 8,7 C 7,2 C 86 % 1013,2 hPa 0,0 l/m 0 min 2 min 0 W/m 12,6 km/h (3 Bft)
30.04.2015 04:32 8,7 C 7,2 C 87 % 1013,2 hPa 0,0 l/m 0 min 2 min 0 W/m 16,7 km/h (3 Bft)
30.04.2015 04:34 8,7 C 7,2 C 87 % 1013,3 hPa 0,0 l/m 0 min 2 min 0 W/m 14,6 km/h (3 Bft)
30.04.2015 04:36 8,7 C 7,2 C 87 % 1013,2 hPa 0,0 l/m 0 min 2 min 0 W/m 10,5 km/h (2 Bft)
30.04.2015 04:38 8,7 C 7,2 C 87 % 1013,2 hPa 0,2 l/m 0 min 2 min 0 W/m 18,8 km/h (3 Bft)
30.04.2015 04:40 8,6 C 7,2 C 87 % 1013,2 hPa 0,0 l/m 0 min 2 min 0 W/m 20,9 km/h (4 Bft)
30.04.2015 04:42 8,6 C 7,2 C 88 % 1013,2 hPa 0,0 l/m 0 min 2 min 0 W/m 23,0 km/h (4 Bft)
30.04.2015 04:44 8,6 C 7,2 C 88 % 1013,2 hPa 0,0 l/m 0 min 2 min 0 W/m 16,7 km/h (3 Bft)
30.04.2015 04:46 8,6 C 7,2 C 88 % 1013,0 hPa 0,0 l/m 0 min 2 min 0 W/m 14,6 km/h (3 Bft)
30.04.2015 04:48 8,6 C 7,2 C 88 % 1013,1 hPa 0,0 l/m 0 min 2 min 0 W/m 12,6 km/h (3 Bft)
30.04.2015 04:50 8,5 C 7,2 C 88 % 1013,2 hPa 0,0 l/m 0 min 2 min 0 W/m 12,6 km/h (3 Bft)
30.04.2015 04:52 8,5 C 7,2 C 88 % 1013,3 hPa 0,0 l/m 0 min 2 min 0 W/m 18,8 km/h (3 Bft)
30.04.2015 04:54 8,5 C 6,7 C 88 % 1013,3 hPa 0,0 l/m 0 min 2 min 0 W/m 20,9 km/h (4 Bft)
30.04.2015 04:56 8,4 C 6,7 C 89 % 1013,2 hPa 0,0 l/m 0 min 2 min 0 W/m 20,9 km/h (4 Bft)
30.04.2015 04:58 8,4 C 6,7 C 89 % 1013,2 hPa 0,0 l/m 0 min 2 min 0 W/m 16,7 km/h (3 Bft)
30.04.2015 05:00 8,4 C 6,7 C 89 % 1013,2 hPa 0,0 l/m 0 min 2 min 0 W/m 16,7 km/h (3 Bft)
30.04.2015 05:02 8,4 C 6,7 C 89 % 1013,1 hPa 0,0 l/m 0 min 2 min 0 W/m 14,6 km/h (3 Bft)
30.04.2015 05:04 8,4 C 6,7 C 89 % 1013,1 hPa 0,0 l/m 0 min 0 min 0 W/m 18,8 km/h (3 Bft)
30.04.2015 05:06 8,3 C 6,7 C 89 % 1013,2 hPa 0,0 l/m 0 min 0 min 0 W/m 20,9 km/h (4 Bft)
30.04.2015 05:08 8,3 C 6,7 C 89 % 1013,3 hPa 0,0 l/m 0 min 2 min 0 W/m 14,6 km/h (3 Bft)
30.04.2015 05:10 8,3 C 6,7 C 90 % 1013,3 hPa 0,0 l/m 0 min 2 min 0 W/m 14,6 km/h (3 Bft)
30.04.2015 05:12 8,3 C 6,7 C 90 % 1013,2 hPa 0,2 l/m 0 min 2 min 0 W/m 23,0 km/h (4 Bft)
30.04.2015 05:14 8,3 C 6,7 C 90 % 1013,2 hPa 0,0 l/m 0 min 2 min 0 W/m 25,1 km/h (4 Bft)
30.04.2015 05:16 8,3 C 6,7 C 90 % 1013,2 hPa 0,0 l/m 0 min 0 min 0 W/m 16,7 km/h (3 Bft)
30.04.2015 05:18 8,2 C 6,7 C 90 % 1013,0 hPa 0,0 l/m 0 min 0 min 0 W/m 16,7 km/h (3 Bft)
30.04.2015 05:20 8,2 C 6,7 C 90 % 1013,0 hPa 0,0 l/m 0 min 0 min 0 W/m 16,7 km/h (3 Bft)
30.04.2015 05:22 8,2 C 6,7 C 90 % 1013,0 hPa 0,0 l/m 0 min 0 min 0 W/m 12,6 km/h (3 Bft)
30.04.2015 05:24 8,2 C 6,7 C 90 % 1013,0 hPa 0,0 l/m 0 min 0 min 0 W/m 14,6 km/h (3 Bft)
30.04.2015 05:26 8,2 C 6,7 C 91 % 1013,0 hPa 0,0 l/m 0 min 0 min 0 W/m 16,7 km/h (3 Bft)
30.04.2015 05:28 8,1 C 6,7 C 91 % 1013,0 hPa 0,0 l/m 0 min 0 min 0 W/m 18,8 km/h (3 Bft)
30.04.2015 05:30 8,1 C 6,7 C 91 % 1013,1 hPa 0,0 l/m 0 min 0 min 0 W/m 14,6 km/h (3 Bft)
30.04.2015 05:32 8,1 C 6,7 C 91 % 1013,1 hPa 0,0 l/m 0 min 0 min 0 W/m 14,6 km/h (3 Bft)
30.04.2015 05:34 8,0 C 6,7 C 91 % 1013,2 hPa 0,0 l/m 0 min 0 min 0 W/m 16,7 km/h (3 Bft)
30.04.2015 05:36 8,0 C 6,7 C 91 % 1013,1 hPa 0,0 l/m 0 min 0 min 0 W/m 12,6 km/h (3 Bft)
30.04.2015 05:38 7,9 C 6,7 C 91 % 1013,1 hPa 0,0 l/m 0 min 0 min 0 W/m 8,4 km/h (2 Bft)
30.04.2015 05:40 7,9 C 6,7 C 91 % 1013,1 hPa 0,0 l/m 0 min 0 min 0 W/m 10,5 km/h (2 Bft)
30.04.2015 05:42 7,9 C 6,7 C 91 % 1013,1 hPa 0,0 l/m 0 min 0 min 0 W/m 12,6 km/h (3 Bft)
30.04.2015 05:44 7,9 C 6,7 C 91 % 1013,2 hPa 0,0 l/m 0 min 0 min 0 W/m 8,4 km/h (2 Bft)
30.04.2015 05:46 7,9 C 6,7 C 91 % 1013,2 hPa 0,0 l/m 0 min 0 min 0 W/m 12,6 km/h (3 Bft)
30.04.2015 05:48 7,9 C 6,7 C 91 % 1013,1 hPa 0,0 l/m 0 min 0 min 0 W/m 12,6 km/h (3 Bft)
30.04.2015 05:50 7,8 C 6,7 C 91 % 1013,2 hPa 0,0 l/m 0 min 0 min 0 W/m 10,5 km/h (2 Bft)
30.04.2015 05:52 7,8 C 6,7 C 91 % 1013,0 hPa 0,0 l/m 0 min 0 min 0 W/m 14,6 km/h (3 Bft)
30.04.2015 05:54 7,8 C 6,7 C 92 % 1012,9 hPa 0,0 l/m 0 min 0 min 0 W/m 8,4 km/h (2 Bft)
30.04.2015 05:56 7,8 C 6,7 C 92 % 1013,0 hPa 0,0 l/m 0 min 0 min 0 W/m 10,5 km/h (2 Bft)
30.04.2015 05:58 7,8 C 6,7 C 92 % 1013,1 hPa 0,0 l/m 0 min 0 min 0 W/m 10,5 km/h (2 Bft)
30.04.2015 06:00 7,8 C 6,7 C 92 % 1013,1 hPa 0,0 l/m 0 min 0 min 0 W/m 14,6 km/h (3 Bft)
30.04.2015 06:02 7,7 C 6,7 C 92 % 1013,2 hPa 0,0 l/m 0 min 0 min 0 W/m 10,5 km/h (2 Bft)
30.04.2015 06:06 7,7 C 6,7 C 92 % 1013,3 hPa 0,0 l/m 0 min 0 min 0 W/m 14,6 km/h (3 Bft)
30.04.2015 06:08 7,7 C 6,7 C 92 % 1013,3 hPa 0,0 l/m 0 min 0 min 2 W/m 12,6 km/h (3 Bft)
30.04.2015 06:10 7,7 C 6,1 C 92 % 1013,2 hPa 0,0 l/m 0 min 0 min 5 W/m 10,5 km/h (2 Bft)
30.04.2015 06:12 7,6 C 6,7 C 92 % 1013,2 hPa 0,0 l/m 0 min 0 min 5 W/m 6,3 km/h (2 Bft)
30.04.2015 06:14 7,6 C 6,1 C 92 % 1013,1 hPa 0,0 l/m 0 min 0 min 6 W/m 10,5 km/h (2 Bft)
30.04.2015 06:16 7,6 C 6,1 C 92 % 1013,1 hPa 0,0 l/m 0 min 0 min 7 W/m 8,4 km/h (2 Bft)
30.04.2015 06:18 7,6 C 6,1 C 92 % 1013,1 hPa 0,0 l/m 0 min 0 min 8 W/m 8,4 km/h (2 Bft)
30.04.2015 06:20 7,5 C 6,1 C 92 % 1013,2 hPa 0,0 l/m 0 min 0 min 9 W/m 10,5 km/h (2 Bft)
30.04.2015 06:22 7,5 C 6,1 C 92 % 1013,3 hPa 0,0 l/m 0 min 0 min 9 W/m 8,4 km/h (2 Bft)
30.04.2015 06:24 7,5 C 6,1 C 92 % 1013,3 hPa 0,0 l/m 0 min 0 min 9 W/m 10,5 km/h (2 Bft)
30.04.2015 06:26 7,4 C 6,1 C 92 % 1013,2 hPa 0,0 l/m 0 min 0 min 11 W/m 12,6 km/h (3 Bft)
30.04.2015 06:28 7,4 C 6,1 C 92 % 1013,2 hPa 0,0 l/m 0 min 0 min 12 W/m 10,5 km/h (2 Bft)
30.04.2015 06:30 7,4 C 6,1 C 92 % 1013,2 hPa 0,0 l/m 0 min 0 min 13 W/m 14,6 km/h (3 Bft)
30.04.2015 06:32 7,4 C 6,1 C 92 % 1013,2 hPa 0,0 l/m 0 min 0 min 17 W/m 12,6 km/h (3 Bft)
30.04.2015 06:34 7,4 C 6,1 C 92 % 1013,2 hPa 0,0 l/m 0 min 0 min 20 W/m 10,5 km/h (2 Bft)
30.04.2015 06:36 7,3 C 6,1 C 93 % 1013,3 hPa 0,0 l/m 0 min 0 min 21 W/m 6,3 km/h (2 Bft)
30.04.2015 06:38 7,3 C 6,1 C 93 % 1013,2 hPa 0,0 l/m 0 min 0 min 21 W/m 16,7 km/h (3 Bft)
30.04.2015 06:40 7,3 C 6,1 C 93 % 1013,1 hPa 0,0 l/m 0 min 0 min 25 W/m 10,5 km/h (2 Bft)
30.04.2015 06:42 7,3 C 6,1 C 93 % 1013,2 hPa 0,0 l/m 2 min 0 min 35 W/m 12,6 km/h (3 Bft)
30.04.2015 06:44 7,3 C 6,1 C 93 % 1013,1 hPa 0,0 l/m 2 min 0 min 43 W/m 6,3 km/h (2 Bft)
30.04.2015 06:46 7,3 C 6,1 C 93 % 1013,1 hPa 0,0 l/m 2 min 0 min 49 W/m 10,5 km/h (2 Bft)
30.04.2015 06:48 7,3 C 6,1 C 93 % 1013,2 hPa 0,0 l/m 2 min 0 min 53 W/m 10,5 km/h (2 Bft)
30.04.2015 06:50 7,3 C 6,1 C 93 % 1013,1 hPa 0,0 l/m 2 min 0 min 49 W/m 8,4 km/h (2 Bft)
30.04.2015 06:52 7,3 C 6,7 C 93 % 1013,1 hPa 0,0 l/m 2 min 0 min 48 W/m 14,6 km/h (3 Bft)
30.04.2015 06:54 7,3 C 6,7 C 93 % 1013,2 hPa 0,0 l/m 0 min 0 min 48 W/m 16,7 km/h (3 Bft)
30.04.2015 06:56 7,3 C 6,7 C 93 % 1013,3 hPa 0,0 l/m 2 min 0 min 66 W/m 8,4 km/h (2 Bft)
30.04.2015 06:58 7,3 C 6,7 C 93 % 1013,2 hPa 0,0 l/m 0 min 0 min 50 W/m 10,5 km/h (2 Bft)
30.04.2015 07:00 7,3 C 6,7 C 93 % 1013,2 hPa 0,0 l/m 0 min 0 min 38 W/m 10,5 km/h (2 Bft)
30.04.2015 07:02 7,3 C 6,7 C 93 % 1013,2 hPa 0,0 l/m 0 min 0 min 35 W/m 10,5 km/h (2 Bft)
30.04.2015 07:04 7,3 C 6,7 C 93 % 1013,2 hPa 0,0 l/m 0 min 0 min 33 W/m 18,8 km/h (3 Bft)
30.04.2015 07:06 7,3 C 6,7 C 93 % 1013,2 hPa 0,0 l/m 0 min 0 min 33 W/m 12,6 km/h (3 Bft)
30.04.2015 07:08 7,3 C 6,7 C 93 % 1013,2 hPa 0,0 l/m 0 min 0 min 40 W/m 12,6 km/h (3 Bft)
30.04.2015 07:10 7,3 C 6,1 C 93 % 1013,2 hPa 0,0 l/m 0 min 0 min 32 W/m 14,6 km/h (3 Bft)
30.04.2015 07:12 7,3 C 6,1 C 93 % 1013,2 hPa 0,0 l/m 0 min 0 min 31 W/m 10,5 km/h (2 Bft)
30.04.2015 07:14 7,3 C 6,1 C 93 % 1013,1 hPa 0,0 l/m 0 min 0 min 30 W/m 14,6 km/h (3 Bft)
30.04.2015 07:16 7,3 C 6,1 C 93 % 1013,2 hPa 0,0 l/m 0 min 0 min 32 W/m 16,7 km/h (3 Bft)
30.04.2015 07:18 7,3 C 6,1 C 94 % 1013,0 hPa 0,0 l/m 0 min 0 min 32 W/m 18,8 km/h (3 Bft)
30.04.2015 07:20 7,3 C 6,1 C 94 % 1013,1 hPa 0,0 l/m 0 min 0 min 33 W/m 16,7 km/h (3 Bft)
30.04.2015 07:22 7,3 C 6,1 C 94 % 1013,1 hPa 0,0 l/m 0 min 0 min 54 W/m 14,6 km/h (3 Bft)
30.04.2015 07:24 7,3 C 6,1 C 94 % 1013,2 hPa 0,0 l/m 2 min 0 min 118 W/m 14,6 km/h (3 Bft)
30.04.2015 07:26 7,3 C 6,1 C 94 % 1013,2 hPa 0,0 l/m 2 min 0 min 124 W/m 16,7 km/h (3 Bft)
30.04.2015 07:28 7,3 C 6,1 C 94 % 1013,2 hPa 0,0 l/m 2 min 0 min 119 W/m 12,6 km/h (3 Bft)
30.04.2015 07:30 7,3 C 6,1 C 94 % 1013,3 hPa 0,0 l/m 0 min 0 min 69 W/m 18,8 km/h (3 Bft)
30.04.2015 07:32 7,3 C 6,1 C 94 % 1013,3 hPa 0,0 l/m 0 min 0 min 43 W/m 14,6 km/h (3 Bft)
30.04.2015 07:34 7,3 C 6,1 C 94 % 1013,3 hPa 0,0 l/m 0 min 0 min 47 W/m 12,6 km/h (3 Bft)
30.04.2015 07:36 7,3 C 6,1 C 94 % 1013,3 hPa 0,0 l/m 2 min 0 min 150 W/m 12,6 km/h (3 Bft)
30.04.2015 07:38 7,3 C 6,7 C 94 % 1013,3 hPa 0,0 l/m 2 min 0 min 172 W/m 14,6 km/h (3 Bft)
30.04.2015 07:40 7,4 C 6,7 C 94 % 1013,3 hPa 0,0 l/m 2 min 0 min 176 W/m 18,8 km/h (3 Bft)
30.04.2015 07:42 7,4 C 6,7 C 94 % 1013,3 hPa 0,0 l/m 2 min 0 min 182 W/m 20,9 km/h (4 Bft)
30.04.2015 07:44 7,4 C 6,7 C 94 % 1013,4 hPa 0,0 l/m 2 min 0 min 188 W/m 10,5 km/h (2 Bft)
30.04.2015 07:46 7,4 C 6,7 C 94 % 1013,4 hPa 0,0 l/m 2 min 0 min 195 W/m 18,8 km/h (3 Bft)
30.04.2015 07:48 7,4 C 6,7 C 94 % 1013,4 hPa 0,0 l/m 2 min 0 min 204 W/m 14,6 km/h (3 Bft)
30.04.2015 07:50 7,5 C 6,7 C 94 % 1013,4 hPa 0,0 l/m 2 min 0 min 208 W/m 12,6 km/h (3 Bft)
30.04.2015 07:52 7,5 C 6,7 C 94 % 1013,3 hPa 0,0 l/m 2 min 0 min 219 W/m 12,6 km/h (3 Bft)
30.04.2015 07:54 7,6 C 6,7 C 94 % 1013,4 hPa 0,0 l/m 2 min 0 min 235 W/m 12,6 km/h (3 Bft)
30.04.2015 07:56 7,6 C 6,7 C 94 % 1013,3 hPa 0,0 l/m 2 min 0 min 247 W/m 20,9 km/h (4 Bft)
30.04.2015 07:58 7,6 C 6,7 C 94 % 1013,4 hPa 0,0 l/m 2 min 0 min 269 W/m 14,6 km/h (3 Bft)
30.04.2015 08:00 7,7 C 6,7 C 94 % 1013,4 hPa 0,0 l/m 2 min 0 min 272 W/m 16,7 km/h (3 Bft)
30.04.2015 08:02 7,7 C 6,7 C 94 % 1013,4 hPa 0,0 l/m 2 min 0 min 308 W/m 14,6 km/h (3 Bft)
30.04.2015 08:04 7,7 C 6,7 C 94 % 1013,4 hPa 0,0 l/m 2 min 0 min 217 W/m 14,6 km/h (3 Bft)
30.04.2015 08:06 7,8 C 6,7 C 94 % 1013,4 hPa 0,0 l/m 0 min 0 min 74 W/m 14,6 km/h (3 Bft)
30.04.2015 08:08 7,8 C 6,7 C 94 % 1013,3 hPa 0,0 l/m 2 min 0 min 206 W/m 16,7 km/h (3 Bft)
30.04.2015 08:10 7,8 C 6,7 C 94 % 1013,2 hPa 0,0 l/m 2 min 0 min 274 W/m 18,8 km/h (3 Bft)
30.04.2015 08:12 7,9 C 6,7 C 94 % 1013,3 hPa 0,0 l/m 2 min 0 min 276 W/m 16,7 km/h (3 Bft)
30.04.2015 08:14 7,9 C 6,7 C 94 % 1013,3 hPa 0,0 l/m 2 min 0 min 278 W/m 12,6 km/h (3 Bft)
30.04.2015 08:16 7,9 C 6,7 C 94 % 1013,3 hPa 0,0 l/m 2 min 0 min 269 W/m 16,7 km/h (3 Bft)
30.04.2015 08:18 7,9 C 6,7 C 94 % 1013,4 hPa 0,0 l/m 2 min 0 min 304 W/m 20,9 km/h (4 Bft)
30.04.2015 08:20 8,0 C 6,7 C 94 % 1013,4 hPa 0,0 l/m 2 min 0 min 320 W/m 16,7 km/h (3 Bft)
30.04.2015 08:22 8,1 C 6,7 C 94 % 1013,4 hPa 0,0 l/m 2 min 0 min 346 W/m 18,8 km/h (3 Bft)
30.04.2015 08:24 8,1 C 7,2 C 94 % 1013,4 hPa 0,0 l/m 2 min 0 min 379 W/m 14,6 km/h (3 Bft)
30.04.2015 08:26 8,2 C 7,2 C 94 % 1013,3 hPa 0,0 l/m 2 min 0 min 325 W/m 20,9 km/h (4 Bft)
30.04.2015 08:28 8,2 C 7,2 C 94 % 1013,3 hPa 0,0 l/m 2 min 0 min 195 W/m 23,0 km/h (4 Bft)
30.04.2015 08:30 8,2 C 7,2 C 94 % 1013,2 hPa 0,0 l/m 2 min 0 min 184 W/m 16,7 km/h (3 Bft)
30.04.2015 08:32 8,3 C 7,8 C 94 % 1013,3 hPa 0,0 l/m 2 min 0 min 177 W/m 18,8 km/h (3 Bft)
30.04.2015 08:34 8,4 C 7,8 C 94 % 1013,3 hPa 0,0 l/m 2 min 0 min 193 W/m 16,7 km/h (3 Bft)
30.04.2015 08:36 8,4 C 7,8 C 94 % 1013,3 hPa 0,0 l/m 2 min 0 min 190 W/m 16,7 km/h (3 Bft)
30.04.2015 08:38 8,5 C 7,8 C 94 % 1013,3 hPa 0,0 l/m 2 min 0 min 190 W/m 20,9 km/h (4 Bft)
30.04.2015 08:40 8,6 C 7,8 C 94 % 1013,3 hPa 0,0 l/m 2 min 0 min 185 W/m 20,9 km/h (4 Bft)
30.04.2015 08:42 8,6 C 7,8 C 94 % 1013,3 hPa 0,0 l/m 2 min 0 min 190 W/m 18,8 km/h (3 Bft)
30.04.2015 08:44 8,7 C 7,8 C 94 % 1013,2 hPa 0,0 l/m 0 min 0 min 187 W/m 27,2 km/h (4 Bft)
30.04.2015 08:46 8,7 C 7,8 C 94 % 1013,2 hPa 0,0 l/m 0 min 0 min 173 W/m 20,9 km/h (4 Bft)
30.04.2015 08:48 8,7 C 7,8 C 94 % 1013,3 hPa 0,0 l/m 0 min 0 min 159 W/m 18,8 km/h (3 Bft)
30.04.2015 08:50 8,8 C 7,8 C 93 % 1013,3 hPa 0,0 l/m 0 min 0 min 173 W/m 23,0 km/h (4 Bft)
30.04.2015 08:52 8,8 C 7,8 C 93 % 1013,2 hPa 0,0 l/m 2 min 0 min 205 W/m 27,2 km/h (4 Bft)
30.04.2015 08:54 8,8 C 7,8 C 93 % 1013,3 hPa 0,0 l/m 0 min 0 min 196 W/m 16,7 km/h (3 Bft)
30.04.2015 08:56 8,9 C 7,8 C 93 % 1013,3 hPa 0,0 l/m 0 min 0 min 193 W/m 14,6 km/h (3 Bft)
30.04.2015 08:58 8,9 C 7,8 C 92 % 1013,3 hPa 0,0 l/m 0 min 0 min 193 W/m 18,8 km/h (3 Bft)
30.04.2015 09:00 8,9 C 7,8 C 92 % 1013,3 hPa 0,0 l/m 0 min 0 min 155 W/m 23,0 km/h (4 Bft)
30.04.2015 09:02 9,0 C 7,8 C 92 % 1013,3 hPa 0,0 l/m 0 min 0 min 192 W/m 20,9 km/h (4 Bft)
30.04.2015 09:04 9,0 C 7,8 C 92 % 1013,3 hPa 0,0 l/m 2 min 0 min 464 W/m 20,9 km/h (4 Bft)
30.04.2015 09:06 9,1 C 7,8 C 91 % 1013,2 hPa 0,0 l/m 2 min 0 min 510 W/m 23,0 km/h (4 Bft)
30.04.2015 09:08 9,1 C 7,8 C 91 % 1013,2 hPa 0,0 l/m 2 min 0 min 532 W/m 16,7 km/h (3 Bft)
30.04.2015 09:10 9,2 C 7,8 C 91 % 1013,2 hPa 0,0 l/m 2 min 0 min 417 W/m 16,7 km/h (3 Bft)
30.04.2015 09:12 9,2 C 7,8 C 90 % 1013,3 hPa 0,0 l/m 2 min 0 min 302 W/m 18,8 km/h (3 Bft)
30.04.2015 09:14 9,3 C 8,3 C 90 % 1013,3 hPa 0,0 l/m 2 min 0 min 573 W/m 29,3 km/h (5 Bft)
30.04.2015 09:16 9,4 C 8,3 C 90 % 1013,1 hPa 0,0 l/m 2 min 0 min 428 W/m 23,0 km/h (4 Bft)
30.04.2015 09:18 9,4 C 8,3 C 89 % 1013,1 hPa 0,0 l/m 2 min 0 min 358 W/m 33,5 km/h (5 Bft)
30.04.2015 09:20 9,6 C 8,3 C 88 % 1013,1 hPa 0,0 l/m 2 min 0 min 592 W/m 20,9 km/h (4 Bft)
30.04.2015 09:22 9,6 C 8,3 C 88 % 1013,1 hPa 0,0 l/m 2 min 0 min 330 W/m 18,8 km/h (3 Bft)
30.04.2015 09:24 9,7 C 8,3 C 87 % 1013,2 hPa 0,0 l/m 2 min 0 min 259 W/m 16,7 km/h (3 Bft)
30.04.2015 09:26 9,8 C 8,9 C 87 % 1013,2 hPa 0,0 l/m 2 min 0 min 270 W/m 27,2 km/h (4 Bft)
30.04.2015 09:28 9,8 C 8,3 C 86 % 1013,2 hPa 0,0 l/m 2 min 0 min 301 W/m 29,3 km/h (5 Bft)
30.04.2015 09:30 9,9 C 8,9 C 86 % 1013,2 hPa 0,0 l/m 2 min 0 min 380 W/m 14,6 km/h (3 Bft)
30.04.2015 09:32 10,0 C 8,9 C 85 % 1013,2 hPa 0,0 l/m 2 min 0 min 377 W/m 33,5 km/h (5 Bft)
30.04.2015 09:34 10,1 C 8,9 C 85 % 1013,1 hPa 0,0 l/m 2 min 0 min 349 W/m 31,4 km/h (5 Bft)
30.04.2015 09:36 10,1 C 8,9 C 84 % 1013,1 hPa 0,0 l/m 2 min 0 min 298 W/m 23,0 km/h (4 Bft)
30.04.2015 09:38 10,2 C 8,9 C 83 % 1013,1 hPa 0,0 l/m 2 min 0 min 279 W/m 20,9 km/h (4 Bft)
30.04.2015 09:40 10,2 C 8,9 C 83 % 1013,1 hPa 0,0 l/m 2 min 0 min 261 W/m 20,9 km/h (4 Bft)
30.04.2015 09:42 10,3 C 8,9 C 83 % 1013,0 hPa 0,0 l/m 2 min 0 min 273 W/m 23,0 km/h (4 Bft)
30.04.2015 09:44 10,3 C 9,4 C 83 % 1013,0 hPa 0,0 l/m 2 min 0 min 288 W/m 23,0 km/h (4 Bft)
30.04.2015 09:46 10,4 C 9,4 C 82 % 1013,0 hPa 0,0 l/m 2 min 0 min 321 W/m 20,9 km/h (4 Bft)
30.04.2015 09:48 10,4 C 9,4 C 82 % 1013,0 hPa 0,0 l/m 2 min 0 min 440 W/m 29,3 km/h (5 Bft)
30.04.2015 09:50 10,5 C 9,4 C 81 % 1013,0 hPa 0,0 l/m 2 min 0 min 705 W/m 23,0 km/h (4 Bft)
30.04.2015 09:52 10,6 C 9,4 C 81 % 1013,0 hPa 0,0 l/m 2 min 0 min 419 W/m 29,3 km/h (5 Bft)
30.04.2015 09:54 10,6 C 8,9 C 80 % 1012,9 hPa 0,0 l/m 2 min 0 min 333 W/m 29,3 km/h (5 Bft)
30.04.2015 09:56 10,6 C 8,9 C 79 % 1012,9 hPa 0,0 l/m 2 min 0 min 390 W/m 23,0 km/h (4 Bft)
30.04.2015 09:58 10,7 C 9,4 C 79 % 1012,9 hPa 0,0 l/m 2 min 0 min 359 W/m 14,6 km/h (3 Bft)
30.04.2015 10:00 10,7 C 8,9 C 79 % 1012,9 hPa 0,0 l/m 0 min 0 min 264 W/m 14,6 km/h (3 Bft)
30.04.2015 10:02 10,7 C 8,9 C 79 % 1012,9 hPa 0,0 l/m 0 min 0 min 210 W/m 23,0 km/h (4 Bft)
30.04.2015 10:04 10,8 C 8,9 C 79 % 1012,9 hPa 0,0 l/m 2 min 0 min 464 W/m 27,2 km/h (4 Bft)
30.04.2015 10:06 10,8 C 9,4 C 79 % 1012,9 hPa 0,0 l/m 2 min 0 min 809 W/m 25,1 km/h (4 Bft)
30.04.2015 10:08 10,9 C 9,4 C 78 % 1013,0 hPa 0,0 l/m 2 min 0 min 859 W/m 25,1 km/h (4 Bft)
30.04.2015 10:10 11,0 C 9,4 C 78 % 1012,9 hPa 0,0 l/m 2 min 0 min 363 W/m 20,9 km/h (4 Bft)
30.04.2015 10:12 11,1 C 10,0 C 78 % 1012,9 hPa 0,0 l/m 2 min 0 min 334 W/m 23,0 km/h (4 Bft)
30.04.2015 10:14 11,1 C 10,0 C 78 % 1012,9 hPa 0,0 l/m 2 min 0 min 383 W/m 29,3 km/h (5 Bft)
30.04.2015 10:16 11,2 C 10,0 C 77 % 1012,9 hPa 0,0 l/m 2 min 0 min 349 W/m 23,0 km/h (4 Bft)
30.04.2015 10:18 11,2 C 10,0 C 77 % 1012,9 hPa 0,0 l/m 2 min 0 min 325 W/m 29,3 km/h (5 Bft)
30.04.2015 10:20 11,2 C 9,4 C 76 % 1012,9 hPa 0,0 l/m 2 min 0 min 319 W/m 27,2 km/h (4 Bft)
30.04.2015 10:22 11,2 C 9,4 C 75 % 1012,9 hPa 0,0 l/m 2 min 0 min 353 W/m 25,1 km/h (4 Bft)
30.04.2015 10:24 11,2 C 10,0 C 75 % 1012,9 hPa 0,0 l/m 2 min 0 min 388 W/m 20,9 km/h (4 Bft)
30.04.2015 10:26 11,2 C 10,0 C 75 % 1013,0 hPa 0,0 l/m 2 min 0 min 388 W/m 25,1 km/h (4 Bft)
30.04.2015 10:28 11,2 C 10,0 C 75 % 1012,9 hPa 0,0 l/m 2 min 0 min 310 W/m 20,9 km/h (4 Bft)
30.04.2015 10:30 11,2 C 10,0 C 75 % 1012,9 hPa 0,0 l/m 0 min 0 min 265 W/m 23,0 km/h (4 Bft)
30.04.2015 10:32 11,2 C 10,0 C 75 % 1012,9 hPa 0,0 l/m 0 min 0 min 269 W/m 31,4 km/h (5 Bft)
30.04.2015 10:34 11,2 C 9,4 C 75 % 1012,9 hPa 0,0 l/m 0 min 0 min 281 W/m 25,1 km/h (4 Bft)
30.04.2015 10:36 11,2 C 9,4 C 74 % 1012,9 hPa 0,0 l/m 0 min 0 min 307 W/m 23,0 km/h (4 Bft)
30.04.2015 10:38 11,2 C 10,0 C 74 % 1012,9 hPa 0,0 l/m 2 min 0 min 325 W/m 23,0 km/h (4 Bft)
30.04.2015 10:40 11,2 C 10,0 C 74 % 1012,9 hPa 0,0 l/m 2 min 0 min 345 W/m 14,6 km/h (3 Bft)
30.04.2015 10:42 11,2 C 10,0 C 75 % 1012,9 hPa 0,0 l/m 2 min 0 min 392 W/m 18,8 km/h (3 Bft)
30.04.2015 10:44 11,2 C 10,0 C 75 % 1012,8 hPa 0,0 l/m 2 min 0 min 411 W/m 25,1 km/h (4 Bft)
30.04.2015 10:46 11,3 C 10,0 C 75 % 1012,9 hPa 0,0 l/m 2 min 0 min 502 W/m 25,1 km/h (4 Bft)
30.04.2015 10:48 11,3 C 10,6 C 74 % 1012,9 hPa 0,0 l/m 2 min 0 min 646 W/m 27,2 km/h (4 Bft)
30.04.2015 10:50 11,4 C 10,6 C 74 % 1012,8 hPa 0,0 l/m 2 min 0 min 525 W/m 23,0 km/h (4 Bft)
30.04.2015 10:52 11,5 C 10,6 C 74 % 1012,9 hPa 0,0 l/m 2 min 0 min 502 W/m 18,8 km/h (3 Bft)
30.04.2015 10:54 11,6 C 10,6 C 74 % 1012,8 hPa 0,0 l/m 2 min 0 min 454 W/m 18,8 km/h (3 Bft)
30.04.2015 10:56 11,7 C 10,6 C 74 % 1012,9 hPa 0,0 l/m 2 min 0 min 380 W/m 25,1 km/h (4 Bft)
30.04.2015 10:58 11,8 C 10,6 C 74 % 1012,8 hPa 0,0 l/m 2 min 0 min 358 W/m 27,2 km/h (4 Bft)
30.04.2015 11:00 11,9 C 10,6 C 72 % 1012,8 hPa 0,0 l/m 0 min 0 min 302 W/m 25,1 km/h (4 Bft)
30.04.2015 11:02 11,9 C 10,6 C 72 % 1012,8 hPa 0,0 l/m 0 min 0 min 230 W/m 23,0 km/h (4 Bft)
30.04.2015 11:04 11,9 C 10,0 C 72 % 1012,8 hPa 0,0 l/m 0 min 0 min 211 W/m 14,6 km/h (3 Bft)
30.04.2015 11:06 11,9 C 10,0 C 72 % 1012,8 hPa 0,0 l/m 0 min 0 min 261 W/m 16,7 km/h (3 Bft)
30.04.2015 11:08 11,9 C 10,0 C 72 % 1012,8 hPa 0,0 l/m 0 min 0 min 291 W/m 23,0 km/h (4 Bft)
30.04.2015 11:10 11,9 C 10,0 C 72 % 1012,8 hPa 0,0 l/m 0 min 0 min 266 W/m 25,1 km/h (4 Bft)
30.04.2015 11:12 11,9 C 10,0 C 72 % 1012,8 hPa 0,0 l/m 0 min 0 min 299 W/m 18,8 km/h (3 Bft)
30.04.2015 11:14 11,8 C 10,0 C 71 % 1012,8 hPa 0,0 l/m 0 min 0 min 245 W/m 20,9 km/h (4 Bft)
30.04.2015 11:16 11,8 C 10,0 C 71 % 1012,8 hPa 0,0 l/m 0 min 0 min 201 W/m 20,9 km/h (4 Bft)
30.04.2015 11:18 11,7 C 10,0 C 71 % 1012,8 hPa 0,0 l/m 0 min 0 min 195 W/m 27,2 km/h (4 Bft)
30.04.2015 11:20 11,7 C 10,0 C 70 % 1012,8 hPa 0,0 l/m 0 min 0 min 251 W/m 20,9 km/h (4 Bft)
30.04.2015 11:22 11,7 C 10,0 C 70 % 1012,8 hPa 0,0 l/m 0 min 0 min 320 W/m 25,1 km/h (4 Bft)
30.04.2015 11:24 11,6 C 10,0 C 70 % 1012,8 hPa 0,0 l/m 2 min 0 min 368 W/m 27,2 km/h (4 Bft)
30.04.2015 11:26 11,6 C 10,0 C 69 % 1012,8 hPa 0,0 l/m 2 min 0 min 387 W/m 27,2 km/h (4 Bft)
30.04.2015 11:28 11,6 C 10,6 C 70 % 1012,8 hPa 0,0 l/m 2 min 0 min 404 W/m 23,0 km/h (4 Bft)
30.04.2015 11:30 11,5 C 10,6 C 69 % 1012,8 hPa 0,0 l/m 2 min 0 min 409 W/m 29,3 km/h (5 Bft)
30.04.2015 11:32 11,5 C 10,6 C 69 % 1012,7 hPa 0,0 l/m 2 min 0 min 389 W/m 16,7 km/h (3 Bft)
30.04.2015 11:34 11,6 C 10,6 C 69 % 1012,7 hPa 0,0 l/m 0 min 0 min 351 W/m 18,8 km/h (3 Bft)
30.04.2015 11:36 11,6 C 10,6 C 70 % 1012,7 hPa 0,0 l/m 0 min 0 min 333 W/m 20,9 km/h (4 Bft)
30.04.2015 11:38 11,6 C 10,6 C 70 % 1012,7 hPa 0,0 l/m 0 min 0 min 293 W/m 23,0 km/h (4 Bft)
30.04.2015 11:40 11,6 C 10,6 C 70 % 1012,7 hPa 0,0 l/m 0 min 0 min 265 W/m 16,7 km/h (3 Bft)
30.04.2015 11:42 11,6 C 10,6 C 70 % 1012,8 hPa 0,0 l/m 0 min 0 min 198 W/m 12,6 km/h (3 Bft)
30.04.2015 11:44 11,6 C 10,6 C 70 % 1012,7 hPa 0,0 l/m 0 min 0 min 171 W/m 14,6 km/h (3 Bft)
30.04.2015 11:46 11,7 C 10,6 C 71 % 1012,7 hPa 0,0 l/m 0 min 0 min 161 W/m 18,8 km/h (3 Bft)
30.04.2015 11:48 11,6 C 10,0 C 71 % 1012,7 hPa 0,0 l/m 0 min 0 min 156 W/m 18,8 km/h (3 Bft)
30.04.2015 11:50 11,6 C 10,0 C 71 % 1012,6 hPa 0,0 l/m 0 min 0 min 153 W/m 14,6 km/h (3 Bft)
30.04.2015 11:52 11,6 C 10,0 C 71 % 1012,7 hPa 0,0 l/m 0 min 0 min 150 W/m 25,1 km/h (4 Bft)
30.04.2015 11:54 11,5 C 10,0 C 70 % 1012,7 hPa 0,0 l/m 0 min 0 min 152 W/m 23,0 km/h (4 Bft)
30.04.2015 11:56 11,4 C 10,0 C 70 % 1012,7 hPa 0,0 l/m 0 min 2 min 150 W/m 25,1 km/h (4 Bft)
30.04.2015 11:58 11,4 C 9,4 C 70 % 1012,7 hPa 0,0 l/m 0 min 0 min 139 W/m 23,0 km/h (4 Bft)
30.04.2015 12:00 11,3 C 9,4 C 71 % 1012,7 hPa 0,0 l/m 0 min 2 min 142 W/m 23,0 km/h (4 Bft)
30.04.2015 12:02 11,3 C 9,4 C 71 % 1012,7 hPa 0,0 l/m 0 min 2 min 139 W/m 20,9 km/h (4 Bft)
30.04.2015 12:06 11,2 C 8,3 C 73 % 1012,8 hPa 0,0 l/m 0 min 2 min 122 W/m 20,9 km/h (4 Bft)
30.04.2015 12:08 11,1 C 8,3 C 74 % 1012,8 hPa 0,0 l/m 0 min 2 min 106 W/m 16,7 km/h (3 Bft)
30.04.2015 12:10 11,0 C 8,3 C 76 % 1012,8 hPa 0,0 l/m 0 min 2 min 92 W/m 16,7 km/h (3 Bft)
30.04.2015 12:12 10,9 C 8,3 C 76 % 1012,8 hPa 0,2 l/m 0 min 2 min 81 W/m 14,6 km/h (3 Bft)
30.04.2015 12:14 10,8 C 8,3 C 77 % 1012,8 hPa 0,0 l/m 0 min 2 min 67 W/m 8,4 km/h (2 Bft)
30.04.2015 12:16 10,8 C 8,3 C 78 % 1012,7 hPa 0,0 l/m 0 min 2 min 58 W/m 16,7 km/h (3 Bft)
30.04.2015 12:18 10,7 C 8,3 C 79 % 1012,7 hPa 0,0 l/m 0 min 2 min 64 W/m 10,5 km/h (2 Bft)
30.04.2015 12:20 10,6 C 8,3 C 79 % 1012,8 hPa 0,0 l/m 0 min 2 min 71 W/m 8,4 km/h (2 Bft)
30.04.2015 12:22 10,6 C 8,3 C 80 % 1012,7 hPa 0,0 l/m 0 min 2 min 75 W/m 8,4 km/h (2 Bft)
30.04.2015 12:24 10,6 C 8,3 C 81 % 1012,7 hPa 0,0 l/m 0 min 2 min 111 W/m 10,5 km/h (2 Bft)
30.04.2015 12:26 10,5 C 8,3 C 81 % 1012,6 hPa 0,0 l/m 0 min 2 min 112 W/m 10,5 km/h (2 Bft)
30.04.2015 12:28 10,4 C 8,3 C 81 % 1012,6 hPa 0,0 l/m 0 min 2 min 105 W/m 6,3 km/h (2 Bft)
30.04.2015 12:30 10,4 C 8,3 C 81 % 1012,6 hPa 0,0 l/m 0 min 0 min 117 W/m 6,3 km/h (2 Bft)
30.04.2015 12:32 10,4 C 8,3 C 82 % 1012,5 hPa 0,0 l/m 0 min 0 min 113 W/m 4,2 km/h (1 Bft)
30.04.2015 12:34 10,3 C 8,3 C 82 % 1012,5 hPa 0,0 l/m 0 min 0 min 110 W/m 4,2 km/h (1 Bft)
30.04.2015 12:36 10,3 C 8,9 C 82 % 1012,5 hPa 0,0 l/m 0 min 0 min 125 W/m 6,3 km/h (2 Bft)
30.04.2015 12:38 10,3 C 8,9 C 82 % 1012,4 hPa 0,0 l/m 0 min 0 min 124 W/m 6,3 km/h (2 Bft)
30.04.2015 12:40 10,3 C 8,9 C 82 % 1012,5 hPa 0,0 l/m 0 min 0 min 121 W/m 8,4 km/h (2 Bft)
30.04.2015 12:42 10,2 C 8,9 C 82 % 1012,4 hPa 0,0 l/m 0 min 0 min 129 W/m 4,2 km/h (1 Bft)
30.04.2015 12:44 10,2 C 8,9 C 83 % 1012,3 hPa 0,0 l/m 0 min 2 min 147 W/m 2,1 km/h (1 Bft)
30.04.2015 12:46 10,2 C 8,9 C 83 % 1012,4 hPa 0,0 l/m 0 min 2 min 133 W/m 4,2 km/h (1 Bft)
30.04.2015 12:48 10,2 C 8,9 C 83 % 1012,3 hPa 0,0 l/m 0 min 0 min 136 W/m 6,3 km/h (2 Bft)
30.04.2015 12:50 10,2 C 8,9 C 83 % 1012,3 hPa 0,0 l/m 0 min 2 min 179 W/m 10,5 km/h (2 Bft)
30.04.2015 12:52 10,2 C 8,9 C 84 % 1012,2 hPa 0,0 l/m 0 min 2 min 241 W/m 10,5 km/h (2 Bft)
30.04.2015 12:54 10,3 C 9,4 C 84 % 1012,3 hPa 0,0 l/m 0 min 2 min 260 W/m 12,6 km/h (3 Bft)
30.04.2015 12:56 10,3 C 9,4 C 84 % 1012,2 hPa 0,0 l/m 0 min 2 min 282 W/m 14,6 km/h (3 Bft)
30.04.2015 12:58 10,3 C 9,4 C 84 % 1012,2 hPa 0,0 l/m 0 min 2 min 293 W/m 16,7 km/h (3 Bft)
30.04.2015 13:00 10,3 C 9,4 C 84 % 1012,2 hPa 0,0 l/m 0 min 0 min 304 W/m 14,6 km/h (3 Bft)
30.04.2015 13:02 10,4 C 9,4 C 84 % 1012,2 hPa 0,0 l/m 0 min 0 min 287 W/m 14,6 km/h (3 Bft)
30.04.2015 13:04 10,4 C 9,4 C 84 % 1012,1 hPa 0,0 l/m 0 min 0 min 238 W/m 18,8 km/h (3 Bft)
30.04.2015 13:06 10,4 C 9,4 C 84 % 1012,1 hPa 0,0 l/m 0 min 0 min 203 W/m 16,7 km/h (3 Bft)
30.04.2015 13:08 10,5 C 9,4 C 84 % 1012,1 hPa 0,0 l/m 0 min 0 min 176 W/m 12,6 km/h (3 Bft)
30.04.2015 13:10 10,6 C 9,4 C 84 % 1012,1 hPa 0,0 l/m 0 min 0 min 190 W/m 14,6 km/h (3 Bft)
30.04.2015 13:12 10,6 C 9,4 C 84 % 1012,1 hPa 0,0 l/m 0 min 0 min 196 W/m 14,6 km/h (3 Bft)
30.04.2015 13:14 10,6 C 9,4 C 84 % 1012,0 hPa 0,0 l/m 0 min 0 min 189 W/m 14,6 km/h (3 Bft)
30.04.2015 13:16 10,6 C 9,4 C 84 % 1012,0 hPa 0,0 l/m 0 min 0 min 193 W/m 18,8 km/h (3 Bft)
30.04.2015 13:18 10,7 C 9,4 C 83 % 1012,1 hPa 0,0 l/m 0 min 0 min 218 W/m 14,6 km/h (3 Bft)
30.04.2015 13:20 10,7 C 9,4 C 83 % 1012,1 hPa 0,0 l/m 0 min 2 min 258 W/m 18,8 km/h (3 Bft)
30.04.2015 13:22 10,7 C 9,4 C 83 % 1012,2 hPa 0,0 l/m 0 min 2 min 239 W/m 16,7 km/h (3 Bft)
30.04.2015 13:24 10,7 C 9,4 C 83 % 1012,2 hPa 0,0 l/m 0 min 2 min 235 W/m 16,7 km/h (3 Bft)
30.04.2015 13:26 10,7 C 9,4 C 83 % 1012,1 hPa 0,0 l/m 0 min 2 min 258 W/m 25,1 km/h (4 Bft)
30.04.2015 13:28 10,7 C 9,4 C 83 % 1012,1 hPa 0,0 l/m 0 min 2 min 306 W/m 16,7 km/h (3 Bft)
30.04.2015 13:30 10,7 C 9,4 C 84 % 1012,0 hPa 0,0 l/m 0 min 2 min 264 W/m 16,7 km/h (3 Bft)
30.04.2015 13:32 10,7 C 9,4 C 83 % 1012,0 hPa 0,0 l/m 0 min 2 min 245 W/m 18,8 km/h (3 Bft)
30.04.2015 13:34 10,7 C 9,4 C 83 % 1012,0 hPa 0,0 l/m 0 min 0 min 231 W/m 18,8 km/h (3 Bft)
30.04.2015 13:36 10,7 C 9,4 C 84 % 1012,0 hPa 0,0 l/m 0 min 2 min 214 W/m 16,7 km/h (3 Bft)
30.04.2015 13:38 10,7 C 8,9 C 84 % 1012,1 hPa 0,0 l/m 0 min 0 min 195 W/m 18,8 km/h (3 Bft)
30.04.2015 13:40 10,6 C 8,9 C 84 % 1012,0 hPa 0,0 l/m 0 min 0 min 186 W/m 20,9 km/h (4 Bft)
30.04.2015 13:42 10,6 C 8,9 C 84 % 1012,0 hPa 0,0 l/m 0 min 2 min 191 W/m 25,1 km/h (4 Bft)
30.04.2015 13:44 10,6 C 8,9 C 84 % 1012,1 hPa 0,0 l/m 0 min 2 min 234 W/m 18,8 km/h (3 Bft)
30.04.2015 13:46 10,6 C 9,4 C 84 % 1012,0 hPa 0,0 l/m 0 min 2 min 329 W/m 18,8 km/h (3 Bft)
30.04.2015 13:48 10,6 C 9,4 C 84 % 1011,9 hPa 0,0 l/m 0 min 2 min 352 W/m 25,1 km/h (4 Bft)
30.04.2015 13:50 10,6 C 9,4 C 85 % 1011,9 hPa 0,0 l/m 0 min 2 min 330 W/m 23,0 km/h (4 Bft)
30.04.2015 13:52 10,6 C 9,4 C 85 % 1011,9 hPa 0,2 l/m 0 min 2 min 371 W/m 27,2 km/h (4 Bft)
30.04.2015 13:54 10,5 C 9,4 C 85 % 1011,8 hPa 0,0 l/m 2 min 2 min 410 W/m 31,4 km/h (5 Bft)
30.04.2015 13:56 10,4 C 9,4 C 84 % 1011,7 hPa 0,0 l/m 2 min 2 min 430 W/m 23,0 km/h (4 Bft)
30.04.2015 13:58 10,4 C 9,4 C 84 % 1011,7 hPa 0,0 l/m 2 min 2 min 397 W/m 20,9 km/h (4 Bft)
30.04.2015 14:00 10,4 C 9,4 C 84 % 1011,6 hPa 0,0 l/m 2 min 0 min 429 W/m 14,6 km/h (3 Bft)
30.04.2015 14:02 10,5 C 10,0 C 84 % 1011,5 hPa 0,0 l/m 2 min 0 min 476 W/m 16,7 km/h (3 Bft)
30.04.2015 14:04 10,6 C 10,0 C 84 % 1011,5 hPa 0,0 l/m 2 min 2 min 461 W/m 20,9 km/h (4 Bft)
30.04.2015 14:06 10,6 C 10,6 C 84 % 1011,4 hPa 0,0 l/m 2 min 0 min 550 W/m 25,1 km/h (4 Bft)
30.04.2015 14:08 10,7 C 10,0 C 83 % 1011,4 hPa 0,0 l/m 2 min 0 min 396 W/m 20,9 km/h (4 Bft)
30.04.2015 14:10 10,8 C 10,0 C 82 % 1011,4 hPa 0,0 l/m 0 min 0 min 322 W/m 29,3 km/h (5 Bft)
30.04.2015 14:12 10,8 C 10,0 C 80 % 1011,4 hPa 0,0 l/m 0 min 0 min 280 W/m 25,1 km/h (4 Bft)
30.04.2015 14:14 10,8 C 9,4 C 78 % 1011,5 hPa 0,0 l/m 0 min 0 min 242 W/m 25,1 km/h (4 Bft)
30.04.2015 14:16 10,8 C 9,4 C 77 % 1011,5 hPa 0,0 l/m 0 min 0 min 238 W/m 27,2 km/h (4 Bft)
30.04.2015 14:18 10,8 C 9,4 C 76 % 1011,6 hPa 0,0 l/m 0 min 0 min 231 W/m 18,8 km/h (3 Bft)
30.04.2015 14:20 10,8 C 9,4 C 76 % 1011,6 hPa 0,0 l/m 0 min 0 min 211 W/m 16,7 km/h (3 Bft)
30.04.2015 14:22 10,9 C 9,4 C 76 % 1011,5 hPa 0,0 l/m 0 min 0 min 206 W/m 27,2 km/h (4 Bft)
30.04.2015 14:24 10,9 C 9,4 C 76 % 1011,4 hPa 0,0 l/m 0 min 0 min 218 W/m 25,1 km/h (4 Bft)
30.04.2015 14:26 10,9 C 9,4 C 76 % 1011,5 hPa 0,0 l/m 0 min 0 min 230 W/m 16,7 km/h (3 Bft)
30.04.2015 14:28 10,9 C 9,4 C 76 % 1011,4 hPa 0,0 l/m 0 min 2 min 221 W/m 14,6 km/h (3 Bft)
30.04.2015 14:30 10,9 C 9,4 C 77 % 1011,4 hPa 0,0 l/m 0 min 2 min 225 W/m 23,0 km/h (4 Bft)
30.04.2015 14:32 10,9 C 9,4 C 77 % 1011,4 hPa 0,0 l/m 0 min 0 min 228 W/m 20,9 km/h (4 Bft)
30.04.2015 14:34 10,9 C 9,4 C 77 % 1011,3 hPa 0,0 l/m 0 min 0 min 230 W/m 16,7 km/h (3 Bft)
30.04.2015 14:36 10,9 C 10,0 C 77 % 1011,3 hPa 0,0 l/m 0 min 2 min 265 W/m 12,6 km/h (3 Bft)
30.04.2015 14:38 10,9 C 10,0 C 78 % 1011,2 hPa 0,0 l/m 0 min 2 min 293 W/m 23,0 km/h (4 Bft)
30.04.2015 14:40 11,0 C 10,0 C 78 % 1011,3 hPa 0,0 l/m 0 min 2 min 277 W/m 18,8 km/h (3 Bft)
30.04.2015 14:42 11,0 C 10,0 C 78 % 1011,2 hPa 0,0 l/m 0 min 2 min 293 W/m 16,7 km/h (3 Bft)
30.04.2015 14:44 11,0 C 9,4 C 77 % 1011,2 hPa 0,0 l/m 0 min 2 min 313 W/m 29,3 km/h (5 Bft)
30.04.2015 14:46 11,0 C 9,4 C 76 % 1011,2 hPa 0,0 l/m 0 min 2 min 315 W/m 20,9 km/h (4 Bft)
30.04.2015 14:48 11,1 C 9,4 C 76 % 1011,1 hPa 0,0 l/m 0 min 0 min 300 W/m 25,1 km/h (4 Bft)
30.04.2015 14:50 11,1 C 10,0 C 77 % 1011,1 hPa 0,0 l/m 0 min 0 min 330 W/m 20,9 km/h (4 Bft)
30.04.2015 14:52 11,1 C 10,0 C 77 % 1011,1 hPa 0,0 l/m 0 min 0 min 334 W/m 14,6 km/h (3 Bft)
30.04.2015 14:54 11,2 C 10,0 C 77 % 1011,1 hPa 0,0 l/m 0 min 0 min 323 W/m 18,8 km/h (3 Bft)
30.04.2015 14:56 11,2 C 10,0 C 77 % 1011,1 hPa 0,0 l/m 0 min 0 min 327 W/m 12,6 km/h (3 Bft)
30.04.2015 14:58 11,2 C 10,0 C 76 % 1011,0 hPa 0,0 l/m 0 min 0 min 312 W/m 18,8 km/h (3 Bft)
30.04.2015 15:00 11,2 C 10,0 C 76 % 1011,1 hPa 0,0 l/m 0 min 2 min 290 W/m 16,7 km/h (3 Bft)
30.04.2015 15:02 11,2 C 10,0 C 76 % 1011,0 hPa 0,0 l/m 0 min 0 min 275 W/m 16,7 km/h (3 Bft)
30.04.2015 15:04 11,3 C 10,0 C 76 % 1011,0 hPa 0,0 l/m 0 min 0 min 261 W/m 14,6 km/h (3 Bft)
30.04.2015 15:06 11,3 C 10,0 C 76 % 1011,1 hPa 0,0 l/m 0 min 0 min 259 W/m 20,9 km/h (4 Bft)
30.04.2015 15:08 11,3 C 9,4 C 75 % 1011,0 hPa 0,0 l/m 0 min 0 min 269 W/m 29,3 km/h (5 Bft)
30.04.2015 15:10 11,3 C 10,0 C 75 % 1011,0 hPa 0,0 l/m 0 min 0 min 278 W/m 20,9 km/h (4 Bft)
30.04.2015 15:12 11,3 C 10,0 C 74 % 1011,0 hPa 0,0 l/m 0 min 0 min 282 W/m 23,0 km/h (4 Bft)
30.04.2015 15:14 11,3 C 10,0 C 74 % 1011,0 hPa 0,0 l/m 0 min 0 min 297 W/m 23,0 km/h (4 Bft)
30.04.2015 15:16 11,3 C 10,0 C 75 % 1011,0 hPa 0,0 l/m 2 min 0 min 386 W/m 25,1 km/h (4 Bft)
30.04.2015 15:18 11,3 C 10,0 C 74 % 1011,0 hPa 0,0 l/m 2 min 0 min 448 W/m 27,2 km/h (4 Bft)
30.04.2015 15:20 11,4 C 10,6 C 75 % 1010,9 hPa 0,0 l/m 2 min 0 min 460 W/m 25,1 km/h (4 Bft)
30.04.2015 15:22 11,4 C 10,6 C 74 % 1010,9 hPa 0,0 l/m 0 min 0 min 358 W/m 20,9 km/h (4 Bft)
30.04.2015 15:24 11,5 C 10,6 C 75 % 1010,9 hPa 0,0 l/m 0 min 0 min 301 W/m 14,6 km/h (3 Bft)
30.04.2015 15:26 11,6 C 10,6 C 76 % 1010,9 hPa 0,0 l/m 0 min 0 min 277 W/m 14,6 km/h (3 Bft)
30.04.2015 15:28 11,6 C 10,6 C 76 % 1010,9 hPa 0,0 l/m 0 min 0 min 264 W/m 14,6 km/h (3 Bft)
30.04.2015 15:30 11,7 C 10,6 C 76 % 1010,9 hPa 0,0 l/m 0 min 0 min 266 W/m 10,5 km/h (2 Bft)
30.04.2015 15:32 11,7 C 11,1 C 76 % 1010,9 hPa 0,0 l/m 0 min 0 min 316 W/m 20,9 km/h (4 Bft)
30.04.2015 15:34 11,8 C 10,6 C 75 % 1010,9 hPa 0,0 l/m 0 min 0 min 325 W/m 20,9 km/h (4 Bft)
30.04.2015 15:36 11,8 C 10,6 C 75 % 1010,9 hPa 0,0 l/m 2 min 0 min 352 W/m 33,5 km/h (5 Bft)
30.04.2015 15:38 11,8 C 10,6 C 75 % 1010,9 hPa 0,0 l/m 2 min 0 min 354 W/m 23,0 km/h (4 Bft)
30.04.2015 15:40 11,8 C 10,6 C 74 % 1010,8 hPa 0,0 l/m 0 min 0 min 301 W/m 20,9 km/h (4 Bft)
30.04.2015 15:42 11,8 C 10,6 C 74 % 1010,9 hPa 0,0 l/m 0 min 0 min 254 W/m 20,9 km/h (4 Bft)
30.04.2015 15:44 11,8 C 10,6 C 74 % 1010,8 hPa 0,0 l/m 0 min 0 min 223 W/m 20,9 km/h (4 Bft)
30.04.2015 15:46 11,8 C 10,0 C 73 % 1010,9 hPa 0,0 l/m 0 min 0 min 215 W/m 25,1 km/h (4 Bft)
30.04.2015 15:48 11,8 C 10,0 C 74 % 1010,8 hPa 0,0 l/m 0 min 0 min 227 W/m 29,3 km/h (5 Bft)
30.04.2015 15:50 11,8 C 10,0 C 74 % 1010,8 hPa 0,0 l/m 0 min 0 min 235 W/m 20,9 km/h (4 Bft)
30.04.2015 15:52 11,8 C 10,6 C 74 % 1010,8 hPa 0,0 l/m 0 min 0 min 227 W/m 23,0 km/h (4 Bft)
30.04.2015 15:54 11,7 C 10,0 C 74 % 1010,8 hPa 0,0 l/m 0 min 0 min 225 W/m 23,0 km/h (4 Bft)
30.04.2015 15:56 11,7 C 10,0 C 73 % 1010,7 hPa 0,0 l/m 0 min 0 min 244 W/m 16,7 km/h (3 Bft)
30.04.2015 15:58 11,7 C 10,6 C 73 % 1010,7 hPa 0,0 l/m 0 min 0 min 244 W/m 16,7 km/h (3 Bft)
30.04.2015 16:00 11,7 C 10,6 C 74 % 1010,7 hPa 0,0 l/m 0 min 0 min 224 W/m 12,6 km/h (3 Bft)
30.04.2015 16:02 11,7 C 10,6 C 74 % 1010,7 hPa 0,0 l/m 0 min 0 min 207 W/m 33,5 km/h (5 Bft)
30.04.2015 16:04 11,7 C 10,0 C 74 % 1010,7 hPa 0,0 l/m 0 min 0 min 198 W/m 25,1 km/h (4 Bft)
30.04.2015 16:06 11,7 C 10,0 C 74 % 1010,7 hPa 0,0 l/m 0 min 0 min 184 W/m 18,8 km/h (3 Bft)
30.04.2015 16:08 11,6 C 10,0 C 74 % 1010,7 hPa 0,0 l/m 0 min 0 min 187 W/m 27,2 km/h (4 Bft)
30.04.2015 16:10 11,6 C 10,0 C 74 % 1010,7 hPa 0,0 l/m 0 min 0 min 242 W/m 25,1 km/h (4 Bft)
30.04.2015 16:12 11,6 C 10,6 C 74 % 1010,7 hPa 0,0 l/m 2 min 0 min 335 W/m 23,0 km/h (4 Bft)
30.04.2015 16:14 11,6 C 10,6 C 74 % 1010,6 hPa 0,0 l/m 2 min 0 min 341 W/m 23,0 km/h (4 Bft)
30.04.2015 16:16 11,7 C 11,1 C 75 % 1010,6 hPa 0,0 l/m 2 min 0 min 643 W/m 25,1 km/h (4 Bft)
30.04.2015 16:18 11,8 C 11,1 C 75 % 1010,6 hPa 0,0 l/m 2 min 0 min 749 W/m 14,6 km/h (3 Bft)
30.04.2015 16:20 11,9 C 11,7 C 76 % 1010,6 hPa 0,0 l/m 2 min 0 min 434 W/m 16,7 km/h (3 Bft)
30.04.2015 16:22 12,1 C 11,7 C 75 % 1010,5 hPa 0,0 l/m 2 min 0 min 465 W/m 18,8 km/h (3 Bft)
30.04.2015 16:24 12,2 C 11,1 C 74 % 1010,5 hPa 0,0 l/m 2 min 0 min 366 W/m 20,9 km/h (4 Bft)
30.04.2015 16:26 12,2 C 11,1 C 74 % 1010,5 hPa 0,0 l/m 0 min 0 min 310 W/m 12,6 km/h (3 Bft)
30.04.2015 16:28 12,4 C 11,1 C 74 % 1010,4 hPa 0,0 l/m 0 min 0 min 279 W/m 16,7 km/h (3 Bft)
30.04.2015 16:30 12,4 C 11,1 C 74 % 1010,4 hPa 0,0 l/m 0 min 0 min 281 W/m 25,1 km/h (4 Bft)
30.04.2015 16:32 12,5 C 11,1 C 72 % 1010,5 hPa 0,0 l/m 0 min 0 min 283 W/m 20,9 km/h (4 Bft)
30.04.2015 16:34 12,6 C 11,7 C 72 % 1010,4 hPa 0,0 l/m 2 min 0 min 673 W/m 27,2 km/h (4 Bft)
30.04.2015 16:36 12,7 C 11,7 C 72 % 1010,4 hPa 0,0 l/m 2 min 0 min 769 W/m 25,1 km/h (4 Bft)
30.04.2015 16:38 12,9 C 11,7 C 72 % 1010,3 hPa 0,0 l/m 2 min 0 min 701 W/m 20,9 km/h (4 Bft)
30.04.2015 16:40 13,1 C 11,7 C 71 % 1010,3 hPa 0,0 l/m 2 min 0 min 684 W/m 18,8 km/h (3 Bft)
30.04.2015 16:42 13,2 C 11,7 C 71 % 1010,3 hPa 0,0 l/m 2 min 0 min 659 W/m 33,5 km/h (5 Bft)
30.04.2015 16:44 13,3 C 11,1 C 71 % 1010,4 hPa 0,0 l/m 2 min 0 min 655 W/m 39,7 km/h (6 Bft)
30.04.2015 16:46 13,3 C 11,1 C 71 % 1010,3 hPa 0,0 l/m 2 min 0 min 686 W/m 29,3 km/h (5 Bft)
30.04.2015 16:48 13,4 C 11,1 C 71 % 1010,3 hPa 0,0 l/m 2 min 0 min 693 W/m 23,0 km/h (4 Bft)
30.04.2015 16:50 13,5 C 11,7 C 71 % 1010,3 hPa 0,0 l/m 2 min 0 min 693 W/m 27,2 km/h (4 Bft)
30.04.2015 16:52 13,5 C 11,1 C 71 % 1010,2 hPa 0,0 l/m 2 min 0 min 658 W/m 33,5 km/h (5 Bft)
30.04.2015 16:54 13,6 C 11,7 C 71 % 1010,2 hPa 0,0 l/m 2 min 0 min 677 W/m 25,1 km/h (4 Bft)
30.04.2015 16:56 13,5 C 11,1 C 71 % 1010,2 hPa 0,0 l/m 2 min 0 min 668 W/m 33,5 km/h (5 Bft)
30.04.2015 16:58 13,5 C 11,1 C 71 % 1010,1 hPa 0,0 l/m 2 min 0 min 674 W/m 25,1 km/h (4 Bft)
30.04.2015 17:00 13,5 C 11,1 C 72 % 1010,1 hPa 0,0 l/m 2 min 0 min 681 W/m 29,3 km/h (5 Bft)
30.04.2015 17:02 13,6 C 11,1 C 72 % 1010,2 hPa 0,0 l/m 2 min 0 min 632 W/m 29,3 km/h (5 Bft)
30.04.2015 17:04 13,6 C 11,1 C 72 % 1010,0 hPa 0,0 l/m 2 min 0 min 572 W/m 25,1 km/h (4 Bft)
30.04.2015 17:06 13,7 C 11,1 C 72 % 1009,9 hPa 0,0 l/m 2 min 0 min 534 W/m 27,2 km/h (4 Bft)
30.04.2015 17:08 13,7 C 11,1 C 72 % 1010,0 hPa 0,0 l/m 2 min 0 min 645 W/m 25,1 km/h (4 Bft)
30.04.2015 17:10 13,7 C 11,7 C 71 % 1009,9 hPa 0,0 l/m 2 min 0 min 628 W/m 23,0 km/h (4 Bft)
30.04.2015 17:12 13,7 C 11,1 C 71 % 1009,9 hPa 0,0 l/m 2 min 0 min 642 W/m 23,0 km/h (4 Bft)
30.04.2015 17:14 13,6 C 11,1 C 70 % 1010,1 hPa 0,0 l/m 2 min 0 min 561 W/m 37,7 km/h (5 Bft)
30.04.2015 17:16 13,6 C 11,1 C 70 % 1010,1 hPa 0,0 l/m 2 min 0 min 524 W/m 33,5 km/h (5 Bft)
30.04.2015 17:18 13,6 C 11,1 C 70 % 1010,1 hPa 0,0 l/m 2 min 0 min 641 W/m 33,5 km/h (5 Bft)
30.04.2015 17:20 13,6 C 11,1 C 70 % 1010,1 hPa 0,0 l/m 2 min 0 min 589 W/m 29,3 km/h (5 Bft)
30.04.2015 17:22 13,5 C 11,1 C 70 % 1010,1 hPa 0,0 l/m 2 min 0 min 576 W/m 35,6 km/h (5 Bft)
30.04.2015 17:24 13,4 C 10,6 C 69 % 1010,0 hPa 0,0 l/m 2 min 0 min 548 W/m 25,1 km/h (4 Bft)
30.04.2015 17:26 13,3 C 10,6 C 70 % 1010,0 hPa 0,0 l/m 2 min 0 min 546 W/m 25,1 km/h (4 Bft)
30.04.2015 17:28 13,3 C 10,6 C 69 % 1010,0 hPa 0,0 l/m 0 min 0 min 207 W/m 31,4 km/h (5 Bft)
30.04.2015 17:30 13,2 C 10,6 C 69 % 1010,2 hPa 0,0 l/m 0 min 0 min 168 W/m 29,3 km/h (5 Bft)
30.04.2015 17:32 13,1 C 10,6 C 70 % 1010,0 hPa 0,0 l/m 0 min 0 min 182 W/m 16,7 km/h (3 Bft)
30.04.2015 17:34 12,9 C 10,6 C 70 % 1010,1 hPa 0,0 l/m 0 min 0 min 198 W/m 18,8 km/h (3 Bft)
30.04.2015 17:36 12,9 C 10,6 C 69 % 1010,1 hPa 0,0 l/m 0 min 0 min 214 W/m 23,0 km/h (4 Bft)
30.04.2015 17:38 12,8 C 10,6 C 69 % 1010,2 hPa 0,0 l/m 0 min 0 min 234 W/m 18,8 km/h (3 Bft)
30.04.2015 17:40 12,7 C 10,6 C 69 % 1010,1 hPa 0,0 l/m 2 min 0 min 283 W/m 16,7 km/h (3 Bft)
30.04.2015 17:42 12,6 C 10,6 C 69 % 1010,2 hPa 0,0 l/m 2 min 0 min 283 W/m 29,3 km/h (5 Bft)
30.04.2015 17:44 12,6 C 10,6 C 69 % 1010,2 hPa 0,0 l/m 2 min 0 min 279 W/m 25,1 km/h (4 Bft)
30.04.2015 17:46 12,4 C 10,6 C 68 % 1010,1 hPa 0,0 l/m 2 min 0 min 285 W/m 37,7 km/h (5 Bft)
30.04.2015 17:48 12,4 C 10,6 C 68 % 1010,1 hPa 0,0 l/m 2 min 0 min 282 W/m 27,2 km/h (4 Bft)
30.04.2015 17:50 12,3 C 10,6 C 69 % 1010,1 hPa 0,0 l/m 2 min 0 min 316 W/m 23,0 km/h (4 Bft)
30.04.2015 17:52 12,3 C 10,6 C 70 % 1010,1 hPa 0,0 l/m 2 min 0 min 314 W/m 20,9 km/h (4 Bft)
30.04.2015 17:54 12,3 C 10,6 C 70 % 1010,1 hPa 0,0 l/m 2 min 0 min 322 W/m 29,3 km/h (5 Bft)
30.04.2015 17:56 12,3 C 10,6 C 70 % 1010,2 hPa 0,0 l/m 2 min 0 min 281 W/m 29,3 km/h (5 Bft)
30.04.2015 17:58 12,2 C 10,6 C 70 % 1010,2 hPa 0,0 l/m 2 min 0 min 236 W/m 23,0 km/h (4 Bft)
30.04.2015 18:00 12,2 C 10,6 C 70 % 1010,3 hPa 0,0 l/m 2 min 0 min 228 W/m 27,2 km/h (4 Bft)
30.04.2015 18:02 12,1 C 10,6 C 71 % 1010,3 hPa 0,0 l/m 0 min 0 min 207 W/m 23,0 km/h (4 Bft)
30.04.2015 18:05 11,9 C 10,6 C 72 % 1010,3 hPa 0,0 l/m 0 min 0 min 167 W/m 31,4 km/h (5 Bft)
30.04.2015 18:06 11,9 C 10,0 C 72 % 1010,3 hPa 0,0 l/m 0 min 0 min 134 W/m 37,7 km/h (5 Bft)
30.04.2015 18:08 11,8 C 10,0 C 72 % 1010,3 hPa 0,0 l/m 0 min 0 min 128 W/m 29,3 km/h (5 Bft)
30.04.2015 18:10 11,7 C 10,0 C 73 % 1010,3 hPa 0,0 l/m 0 min 0 min 127 W/m 25,1 km/h (4 Bft)
30.04.2015 18:12 11,7 C 10,0 C 74 % 1010,3 hPa 0,0 l/m 0 min 0 min 119 W/m 25,1 km/h (4 Bft)
30.04.2015 18:14 11,6 C 10,0 C 74 % 1010,4 hPa 0,0 l/m 0 min 0 min 104 W/m 27,2 km/h (4 Bft)
30.04.2015 18:16 11,5 C 10,0 C 75 % 1010,4 hPa 0,0 l/m 0 min 0 min 96 W/m 20,9 km/h (4 Bft)
30.04.2015 18:18 11,4 C 10,0 C 75 % 1010,4 hPa 0,0 l/m 0 min 0 min 87 W/m 23,0 km/h (4 Bft)
30.04.2015 18:20 11,4 C 10,0 C 76 % 1010,4 hPa 0,0 l/m 0 min 0 min 83 W/m 20,9 km/h (4 Bft)
30.04.2015 18:22 11,4 C 10,0 C 76 % 1010,4 hPa 0,0 l/m 0 min 0 min 93 W/m 20,9 km/h (4 Bft)
30.04.2015 18:24 11,3 C 10,0 C 77 % 1010,5 hPa 0,0 l/m 0 min 0 min 99 W/m 20,9 km/h (4 Bft)
30.04.2015 18:26 11,3 C 10,0 C 77 % 1010,5 hPa 0,0 l/m 0 min 0 min 92 W/m 27,2 km/h (4 Bft)
30.04.2015 18:28 11,3 C 9,4 C 77 % 1010,6 hPa 0,0 l/m 0 min 2 min 77 W/m 29,3 km/h (5 Bft)
30.04.2015 18:30 11,2 C 9,4 C 77 % 1010,5 hPa 0,0 l/m 0 min 2 min 64 W/m 18,8 km/h (3 Bft)
30.04.2015 18:32 11,2 C 9,4 C 78 % 1010,6 hPa 0,0 l/m 0 min 0 min 55 W/m 27,2 km/h (4 Bft)
30.04.2015 18:35 11,1 C 9,4 C 78 % 1010,5 hPa 0,0 l/m 0 min 2 min 47 W/m 29,3 km/h (5 Bft)
30.04.2015 18:36 11,1 C 9,4 C 78 % 1010,5 hPa 0,0 l/m 0 min 1 min 44 W/m 33,5 km/h (5 Bft)
30.04.2015 18:40 11,1 C 8,9 C 79 % 1010,1 hPa 0,0 l/m 0 min 2 min 61 W/m 25,1 km/h (4 Bft)
30.04.2015 18:41 11,0 C 8,9 C 80 % 1010,2 hPa 0,0 l/m 0 min 1 min 84 W/m 25,1 km/h (4 Bft)
30.04.2015 18:44 10,9 C 8,9 C 81 % 1010,3 hPa 0,0 l/m 0 min 2 min 83 W/m 18,8 km/h (3 Bft)
30.04.2015 18:46 10,8 C 8,9 C 81 % 1010,4 hPa 0,0 l/m 0 min 2 min 82 W/m 35,6 km/h (5 Bft)
30.04.2015 18:48 10,7 C 8,3 C 80 % 1010,4 hPa 0,0 l/m 0 min 2 min 81 W/m 27,2 km/h (4 Bft)
30.04.2015 18:50 10,6 C 8,3 C 79 % 1010,3 hPa 0,0 l/m 0 min 0 min 78 W/m 35,6 km/h (5 Bft)
30.04.2015 18:52 10,4 C 8,3 C 77 % 1010,3 hPa 0,0 l/m 0 min 2 min 71 W/m 31,4 km/h (5 Bft)
30.04.2015 18:54 10,3 C 7,8 C 75 % 1010,1 hPa 0,0 l/m 0 min 0 min 56 W/m 29,3 km/h (5 Bft)
30.04.2015 18:56 10,3 C 7,8 C 74 % 1010,0 hPa 0,0 l/m 0 min 2 min 47 W/m 37,7 km/h (5 Bft)
30.04.2015 18:58 10,2 C 7,8 C 73 % 1010,1 hPa 0,0 l/m 0 min 2 min 43 W/m 41,8 km/h (6 Bft)
30.04.2015 19:00 10,0 C 7,8 C 72 % 1010,0 hPa 0,0 l/m 0 min 2 min 42 W/m 35,6 km/h (5 Bft)
30.04.2015 19:02 9,9 C 7,8 C 71 % 1009,8 hPa 0,0 l/m 0 min 2 min 43 W/m 31,4 km/h (5 Bft)
30.04.2015 19:04 9,9 C 7,8 C 71 % 1009,7 hPa 0,0 l/m 0 min 0 min 52 W/m 25,1 km/h (4 Bft)
30.04.2015 19:06 9,8 C 7,8 C 70 % 1009,7 hPa 0,0 l/m 0 min 2 min 67 W/m 20,9 km/h (4 Bft)
30.04.2015 19:08 9,8 C 7,8 C 70 % 1009,8 hPa 0,0 l/m 0 min 0 min 99 W/m 29,3 km/h (5 Bft)
30.04.2015 19:10 9,8 C 7,8 C 70 % 1009,8 hPa 0,0 l/m 0 min 0 min 120 W/m 29,3 km/h (5 Bft)
30.04.2015 19:12 9,8 C 8,3 C 71 % 1009,9 hPa 0,0 l/m 2 min 0 min 231 W/m 29,3 km/h (5 Bft)
30.04.2015 19:14 9,8 C 8,3 C 71 % 1009,9 hPa 0,0 l/m 2 min 0 min 258 W/m 33,5 km/h (5 Bft)
30.04.2015 19:16 9,9 C 8,3 C 72 % 1009,8 hPa 0,0 l/m 2 min 0 min 261 W/m 23,0 km/h (4 Bft)
30.04.2015 19:18 9,9 C 8,9 C 72 % 1009,8 hPa 0,0 l/m 2 min 0 min 241 W/m 23,0 km/h (4 Bft)
30.04.2015 19:20 10,0 C 8,9 C 73 % 1009,9 hPa 0,0 l/m 2 min 0 min 202 W/m 20,9 km/h (4 Bft)
30.04.2015 19:22 10,0 C 8,9 C 73 % 1009,9 hPa 0,0 l/m 2 min 0 min 170 W/m 16,7 km/h (3 Bft)
30.04.2015 19:24 10,1 C 8,9 C 74 % 1009,9 hPa 0,0 l/m 2 min 0 min 168 W/m 31,4 km/h (5 Bft)
30.04.2015 19:26 10,1 C 8,9 C 74 % 1009,9 hPa 0,0 l/m 2 min 0 min 109 W/m 18,8 km/h (3 Bft)
30.04.2015 19:28 10,2 C 8,9 C 74 % 1009,9 hPa 0,0 l/m 2 min 0 min 115 W/m 23,0 km/h (4 Bft)
30.04.2015 19:30 10,2 C 8,3 C 74 % 1009,9 hPa 0,0 l/m 0 min 0 min 91 W/m 18,8 km/h (3 Bft)
30.04.2015 19:32 10,2 C 8,3 C 74 % 1010,0 hPa 0,0 l/m 0 min 0 min 69 W/m 20,9 km/h (4 Bft)
30.04.2015 19:34 10,2 C 8,3 C 74 % 1010,0 hPa 0,0 l/m 0 min 0 min 49 W/m 29,3 km/h (5 Bft)
30.04.2015 19:36 10,2 C 8,3 C 73 % 1010,0 hPa 0,0 l/m 0 min 0 min 53 W/m 23,0 km/h (4 Bft)
30.04.2015 19:38 10,2 C 8,3 C 73 % 1010,0 hPa 0,0 l/m 0 min 0 min 55 W/m 18,8 km/h (3 Bft)
30.04.2015 19:40 10,2 C 8,3 C 73 % 1010,0 hPa 0,0 l/m 0 min 0 min 83 W/m 20,9 km/h (4 Bft)
30.04.2015 19:42 10,2 C 8,3 C 73 % 1010,1 hPa 0,0 l/m 0 min 0 min 78 W/m 18,8 km/h (3 Bft)
30.04.2015 19:44 10,1 C 8,3 C 73 % 1010,1 hPa 0,0 l/m 0 min 0 min 62 W/m 27,2 km/h (4 Bft)
30.04.2015 19:46 10,1 C 8,3 C 73 % 1010,0 hPa 0,0 l/m 0 min 0 min 74 W/m 16,7 km/h (3 Bft)
30.04.2015 19:48 10,1 C 8,3 C 74 % 1009,9 hPa 0,0 l/m 0 min 0 min 58 W/m 16,7 km/h (3 Bft)
30.04.2015 19:50 10,1 C 8,3 C 74 % 1009,9 hPa 0,0 l/m 0 min 0 min 41 W/m 23,0 km/h (4 Bft)
30.04.2015 19:52 10,1 C 8,3 C 74 % 1010,0 hPa 0,0 l/m 0 min 0 min 53 W/m 14,6 km/h (3 Bft)
30.04.2015 19:54 10,0 C 8,3 C 73 % 1009,9 hPa 0,0 l/m 0 min 0 min 45 W/m 16,7 km/h (3 Bft)
30.04.2015 19:56 10,0 C 8,3 C 73 % 1010,1 hPa 0,0 l/m 0 min 0 min 40 W/m 12,6 km/h (3 Bft)
30.04.2015 19:58 10,0 C 8,3 C 74 % 1010,2 hPa 0,0 l/m 0 min 0 min 41 W/m 14,6 km/h (3 Bft)
30.04.2015 20:00 9,9 C 8,3 C 74 % 1010,1 hPa 0,0 l/m 0 min 0 min 40 W/m 18,8 km/h (3 Bft)
30.04.2015 20:02 9,9 C 7,8 C 74 % 1010,2 hPa 0,0 l/m 0 min 0 min 42 W/m 16,7 km/h (3 Bft)
30.04.2015 20:04 9,9 C 7,8 C 74 % 1010,1 hPa 0,0 l/m 0 min 0 min 42 W/m 16,7 km/h (3 Bft)
30.04.2015 20:06 9,9 C 7,8 C 75 % 1010,1 hPa 0,0 l/m 0 min 0 min 44 W/m 14,6 km/h (3 Bft)
30.04.2015 20:08 9,8 C 7,8 C 75 % 1010,1 hPa 0,0 l/m 0 min 0 min 49 W/m 14,6 km/h (3 Bft)
30.04.2015 20:10 9,8 C 7,8 C 75 % 1010,2 hPa 0,0 l/m 0 min 0 min 45 W/m 14,6 km/h (3 Bft)
30.04.2015 20:12 9,8 C 7,8 C 75 % 1010,2 hPa 0,0 l/m 0 min 0 min 40 W/m 14,6 km/h (3 Bft)
30.04.2015 20:14 9,8 C 7,8 C 75 % 1010,3 hPa 0,0 l/m 0 min 0 min 36 W/m 14,6 km/h (3 Bft)
30.04.2015 20:16 9,7 C 7,8 C 76 % 1010,3 hPa 0,0 l/m 0 min 0 min 32 W/m 16,7 km/h (3 Bft)
30.04.2015 20:18 9,7 C 7,8 C 76 % 1010,3 hPa 0,0 l/m 0 min 0 min 29 W/m 14,6 km/h (3 Bft)
30.04.2015 20:20 9,7 C 7,8 C 76 % 1010,3 hPa 0,0 l/m 0 min 0 min 29 W/m 12,6 km/h (3 Bft)
30.04.2015 20:22 9,6 C 7,8 C 76 % 1010,3 hPa 0,0 l/m 0 min 0 min 30 W/m 12,6 km/h (3 Bft)
30.04.2015 20:24 9,6 C 7,8 C 76 % 1010,4 hPa 0,0 l/m 0 min 0 min 28 W/m 10,5 km/h (2 Bft)
30.04.2015 20:26 9,6 C 7,8 C 76 % 1010,4 hPa 0,0 l/m 2 min 0 min 28 W/m 14,6 km/h (3 Bft)
30.04.2015 20:28 9,6 C 7,8 C 76 % 1010,4 hPa 0,0 l/m 2 min 0 min 28 W/m 12,6 km/h (3 Bft)
30.04.2015 20:30 9,5 C 7,8 C 76 % 1010,3 hPa 0,0 l/m 2 min 0 min 26 W/m 10,5 km/h (2 Bft)
30.04.2015 20:32 9,5 C 7,8 C 77 % 1010,2 hPa 0,0 l/m 2 min 0 min 24 W/m 8,4 km/h (2 Bft)
30.04.2015 20:34 9,4 C 7,8 C 77 % 1010,3 hPa 0,0 l/m 2 min 0 min 21 W/m 14,6 km/h (3 Bft)
30.04.2015 20:36 9,4 C 7,8 C 77 % 1010,3 hPa 0,0 l/m 0 min 0 min 18 W/m 14,6 km/h (3 Bft)
30.04.2015 20:38 9,3 C 7,8 C 77 % 1010,4 hPa 0,0 l/m 0 min 0 min 16 W/m 12,6 km/h (3 Bft)
30.04.2015 20:40 9,3 C 7,8 C 77 % 1010,4 hPa 0,0 l/m 0 min 0 min 13 W/m 16,7 km/h (3 Bft)
30.04.2015 20:42 9,2 C 7,2 C 78 % 1010,4 hPa 0,0 l/m 0 min 0 min 12 W/m 14,6 km/h (3 Bft)
30.04.2015 20:44 9,2 C 7,2 C 78 % 1010,3 hPa 0,0 l/m 0 min 0 min 11 W/m 10,5 km/h (2 Bft)
30.04.2015 20:46 9,2 C 7,2 C 78 % 1010,4 hPa 0,0 l/m 0 min 0 min 11 W/m 12,6 km/h (3 Bft)
30.04.2015 20:48 9,1 C 7,2 C 78 % 1010,4 hPa 0,0 l/m 0 min 0 min 11 W/m 10,5 km/h (2 Bft)
30.04.2015 20:50 9,1 C 7,2 C 78 % 1010,4 hPa 0,0 l/m 0 min 0 min 9 W/m 10,5 km/h (2 Bft)
30.04.2015 20:52 9,0 C 7,2 C 79 % 1010,4 hPa 0,0 l/m 0 min 0 min 9 W/m 14,6 km/h (3 Bft)
30.04.2015 20:54 9,0 C 7,2 C 79 % 1010,4 hPa 0,0 l/m 0 min 0 min 7 W/m 14,6 km/h (3 Bft)
30.04.2015 20:56 8,9 C 7,2 C 79 % 1010,4 hPa 0,0 l/m 0 min 0 min 7 W/m 10,5 km/h (2 Bft)
30.04.2015 20:58 8,9 C 7,2 C 79 % 1010,4 hPa 0,0 l/m 0 min 0 min 6 W/m 12,6 km/h (3 Bft)
30.04.2015 21:00 8,9 C 7,2 C 80 % 1010,3 hPa 0,0 l/m 0 min 0 min 5 W/m 8,4 km/h (2 Bft)
30.04.2015 21:02 8,8 C 7,2 C 80 % 1010,4 hPa 0,0 l/m 0 min 0 min 5 W/m 10,5 km/h (2 Bft)
30.04.2015 21:04 8,8 C 7,2 C 80 % 1010,5 hPa 0,0 l/m 0 min 0 min 1 W/m 8,4 km/h (2 Bft)
30.04.2015 21:06 8,7 C 7,2 C 81 % 1010,4 hPa 0,0 l/m 0 min 0 min 0 W/m 6,3 km/h (2 Bft)
30.04.2015 21:08 8,7 C 7,2 C 81 % 1010,5 hPa 0,0 l/m 0 min 0 min 0 W/m 8,4 km/h (2 Bft)
30.04.2015 21:10 8,7 C 7,2 C 81 % 1010,4 hPa 0,0 l/m 0 min 0 min 0 W/m 8,4 km/h (2 Bft)
30.04.2015 21:12 8,7 C 7,2 C 81 % 1010,4 hPa 0,0 l/m 0 min 0 min 0 W/m 8,4 km/h (2 Bft)
30.04.2015 21:14 8,6 C 7,2 C 81 % 1010,4 hPa 0,0 l/m 0 min 0 min 0 W/m 6,3 km/h (2 Bft)
30.04.2015 21:16 8,6 C 7,2 C 81 % 1010,3 hPa 0,0 l/m 0 min 0 min 0 W/m 8,4 km/h (2 Bft)
30.04.2015 21:18 8,6 C 7,2 C 81 % 1010,4 hPa 0,0 l/m 0 min 0 min 0 W/m 6,3 km/h (2 Bft)
30.04.2015 21:20 8,5 C 7,2 C 81 % 1010,4 hPa 0,0 l/m 0 min 0 min 0 W/m 6,3 km/h (2 Bft)
30.04.2015 21:22 8,4 C 6,7 C 81 % 1010,4 hPa 0,0 l/m 0 min 0 min 0 W/m 6,3 km/h (2 Bft)
30.04.2015 21:24 8,4 C 6,7 C 82 % 1010,4 hPa 0,0 l/m 0 min 0 min 0 W/m 4,2 km/h (1 Bft)
30.04.2015 21:26 8,4 C 6,7 C 82 % 1010,4 hPa 0,0 l/m 0 min 0 min 0 W/m 6,3 km/h (2 Bft)
30.04.2015 21:28 8,4 C 6,7 C 82 % 1010,4 hPa 0,0 l/m 0 min 0 min 0 W/m 6,3 km/h (2 Bft)
30.04.2015 21:30 8,3 C 6,7 C 82 % 1010,5 hPa 0,0 l/m 0 min 0 min 0 W/m 8,4 km/h (2 Bft)
30.04.2015 21:32 8,3 C 6,7 C 82 % 1010,4 hPa 0,0 l/m 0 min 0 min 0 W/m 8,4 km/h (2 Bft)
30.04.2015 21:34 8,3 C 6,7 C 82 % 1010,5 hPa 0,0 l/m 0 min 0 min 0 W/m 10,5 km/h (2 Bft)
30.04.2015 21:36 8,2 C 6,7 C 82 % 1010,5 hPa 0,0 l/m 0 min 0 min 0 W/m 8,4 km/h (2 Bft)
30.04.2015 21:38 8,2 C 6,7 C 82 % 1010,5 hPa 0,0 l/m 0 min 0 min 0 W/m 6,3 km/h (2 Bft)
30.04.2015 21:40 8,2 C 6,7 C 82 % 1010,5 hPa 0,0 l/m 0 min 0 min 0 W/m 6,3 km/h (2 Bft)
30.04.2015 21:42 8,1 C 6,7 C 83 % 1010,4 hPa 0,0 l/m 0 min 0 min 0 W/m 6,3 km/h (2 Bft)
30.04.2015 21:44 8,1 C 6,7 C 83 % 1010,4 hPa 0,0 l/m 0 min 0 min 0 W/m 6,3 km/h (2 Bft)
30.04.2015 21:46 8,1 C 6,7 C 83 % 1010,4 hPa 0,0 l/m 0 min 0 min 0 W/m 4,2 km/h (1 Bft)
30.04.2015 21:48 8,0 C 6,7 C 83 % 1010,4 hPa 0,0 l/m 0 min 0 min 0 W/m 4,2 km/h (1 Bft)
30.04.2015 21:50 7,9 C 6,7 C 83 % 1010,4 hPa 0,0 l/m 0 min 0 min 0 W/m 4,2 km/h (1 Bft)
30.04.2015 21:52 7,9 C 6,7 C 83 % 1010,4 hPa 0,0 l/m 0 min 0 min 0 W/m 4,2 km/h (1 Bft)
30.04.2015 21:54 7,8 C 6,1 C 83 % 1010,4 hPa 0,0 l/m 0 min 0 min 0 W/m 4,2 km/h (1 Bft)
30.04.2015 21:56 7,8 C 6,1 C 83 % 1010,4 hPa 0,0 l/m 0 min 0 min 0 W/m 4,2 km/h (1 Bft)
30.04.2015 21:58 7,8 C 6,1 C 83 % 1010,4 hPa 0,0 l/m 0 min 0 min 0 W/m 4,2 km/h (1 Bft)
30.04.2015 22:00 7,7 C 6,1 C 83 % 1010,4 hPa 0,0 l/m 0 min 0 min 0 W/m 2,1 km/h (1 Bft)
30.04.2015 22:02 7,7 C 6,1 C 83 % 1010,4 hPa 0,0 l/m 0 min 0 min 0 W/m 4,2 km/h (1 Bft)
30.04.2015 22:04 7,7 C 6,1 C 83 % 1010,4 hPa 0,0 l/m 0 min 0 min 0 W/m 2,1 km/h (1 Bft)
30.04.2015 22:06 7,6 C 6,1 C 84 % 1010,4 hPa 0,0 l/m 0 min 0 min 0 W/m 4,2 km/h (1 Bft)
30.04.2015 22:08 7,6 C 6,1 C 83 % 1010,4 hPa 0,0 l/m 0 min 0 min 0 W/m 6,3 km/h (2 Bft)
30.04.2015 22:10 7,6 C 6,1 C 83 % 1010,3 hPa 0,0 l/m 0 min 0 min 0 W/m 6,3 km/h (2 Bft)
30.04.2015 22:12 7,5 C 6,1 C 84 % 1010,4 hPa 0,0 l/m 0 min 0 min 0 W/m 6,3 km/h (2 Bft)
30.04.2015 22:14 7,4 C 6,1 C 84 % 1010,4 hPa 0,0 l/m 0 min 0 min 0 W/m 6,3 km/h (2 Bft)
30.04.2015 22:16 7,4 C 6,1 C 84 % 1010,5 hPa 0,0 l/m 0 min 0 min 0 W/m 6,3 km/h (2 Bft)
30.04.2015 22:18 7,4 C 6,1 C 84 % 1010,4 hPa 0,0 l/m 0 min 0 min 0 W/m 8,4 km/h (2 Bft)
30.04.2015 22:20 7,3 C 6,1 C 84 % 1010,4 hPa 0,0 l/m 0 min 0 min 0 W/m 6,3 km/h (2 Bft)
30.04.2015 22:22 7,3 C 6,1 C 84 % 1010,4 hPa 0,0 l/m 0 min 0 min 0 W/m 8,4 km/h (2 Bft)
30.04.2015 22:24 7,3 C 6,1 C 84 % 1010,4 hPa 0,0 l/m 0 min 0 min 0 W/m 6,3 km/h (2 Bft)
30.04.2015 22:26 7,3 C 5,6 C 85 % 1010,5 hPa 0,0 l/m 0 min 0 min 0 W/m 6,3 km/h (2 Bft)
30.04.2015 22:28 7,2 C 5,6 C 85 % 1010,4 hPa 0,0 l/m 0 min 0 min 0 W/m 4,2 km/h (1 Bft)
30.04.2015 22:30 7,2 C 5,6 C 85 % 1010,5 hPa 0,0 l/m 0 min 0 min 0 W/m 6,3 km/h (2 Bft)
30.04.2015 22:32 7,2 C 5,6 C 85 % 1010,5 hPa 0,0 l/m 0 min 0 min 0 W/m 6,3 km/h (2 Bft)
30.04.2015 22:34 7,2 C 5,6 C 85 % 1010,5 hPa 0,0 l/m 0 min 0 min 0 W/m 6,3 km/h (2 Bft)
30.04.2015 22:36 7,1 C 5,6 C 85 % 1010,4 hPa 0,0 l/m 0 min 0 min 0 W/m 4,2 km/h (1 Bft)
30.04.2015 22:38 7,1 C 5,6 C 86 % 1010,5 hPa 0,0 l/m 0 min 0 min 0 W/m 4,2 km/h (1 Bft)
30.04.2015 22:40 7,1 C 5,6 C 86 % 1010,5 hPa 0,0 l/m 0 min 0 min 0 W/m 4,2 km/h (1 Bft)
30.04.2015 22:42 7,1 C 5,6 C 86 % 1010,5 hPa 0,0 l/m 0 min 0 min 0 W/m 2,1 km/h (1 Bft)
30.04.2015 22:44 7,0 C 5,6 C 86 % 1010,5 hPa 0,0 l/m 0 min 0 min 0 W/m 2,1 km/h (1 Bft)
30.04.2015 22:46 7,0 C 5,6 C 86 % 1010,5 hPa 0,0 l/m 0 min 0 min 0 W/m 4,2 km/h (1 Bft)
30.04.2015 22:48 6,9 C 5,6 C 86 % 1010,6 hPa 0,0 l/m 0 min 0 min 0 W/m 4,2 km/h (1 Bft)
30.04.2015 22:50 6,9 C 5,6 C 86 % 1010,5 hPa 0,0 l/m 0 min 0 min 0 W/m 4,2 km/h (1 Bft)
30.04.2015 22:52 6,9 C 5,6 C 86 % 1010,6 hPa 0,0 l/m 0 min 0 min 0 W/m 4,2 km/h (1 Bft)
30.04.2015 22:54 6,9 C 5,6 C 86 % 1010,6 hPa 0,0 l/m 0 min 0 min 0 W/m 4,2 km/h (1 Bft)
30.04.2015 22:56 6,9 C 5,6 C 86 % 1010,6 hPa 0,0 l/m 0 min 0 min 0 W/m 2,1 km/h (1 Bft)
30.04.2015 22:58 6,8 C 5,6 C 86 % 1010,6 hPa 0,0 l/m 0 min 0 min 0 W/m 4,2 km/h (1 Bft)
30.04.2015 23:00 6,8 C 5,0 C 86 % 1010,6 hPa 0,0 l/m 0 min 0 min 0 W/m 4,2 km/h (1 Bft)
30.04.2015 23:02 6,8 C 5,0 C 87 % 1010,6 hPa 0,0 l/m 0 min 0 min 0 W/m 4,2 km/h (1 Bft)
30.04.2015 23:04 6,7 C 5,0 C 87 % 1010,7 hPa 0,0 l/m 0 min 0 min 0 W/m 4,2 km/h (1 Bft)
30.04.2015 23:06 6,7 C 5,0 C 87 % 1010,6 hPa 0,0 l/m 0 min 0 min 0 W/m 4,2 km/h (1 Bft)
30.04.2015 23:08 6,7 C 5,0 C 87 % 1010,6 hPa 0,0 l/m 0 min 0 min 0 W/m 2,1 km/h (1 Bft)
30.04.2015 23:10 6,6 C 5,0 C 87 % 1010,7 hPa 0,0 l/m 0 min 0 min 0 W/m 4,2 km/h (1 Bft)
30.04.2015 23:12 6,6 C 5,0 C 86 % 1010,7 hPa 0,0 l/m 0 min 0 min 0 W/m 4,2 km/h (1 Bft)
30.04.2015 23:14 6,5 C 5,0 C 86 % 1010,7 hPa 0,0 l/m 0 min 0 min 0 W/m 6,3 km/h (2 Bft)
30.04.2015 23:16 6,5 C 5,0 C 87 % 1010,6 hPa 0,0 l/m 0 min 0 min 0 W/m 6,3 km/h (2 Bft)
30.04.2015 23:18 6,4 C 5,0 C 87 % 1010,6 hPa 0,0 l/m 0 min 0 min 0 W/m 4,2 km/h (1 Bft)
30.04.2015 23:20 6,4 C 5,0 C 87 % 1010,6 hPa 0,0 l/m 0 min 0 min 0 W/m 6,3 km/h (2 Bft)
30.04.2015 23:22 6,4 C 5,0 C 87 % 1010,6 hPa 0,0 l/m 0 min 0 min 0 W/m 4,2 km/h (1 Bft)
30.04.2015 23:24 6,4 C 5,0 C 87 % 1010,7 hPa 0,0 l/m 0 min 0 min 0 W/m 4,2 km/h (1 Bft)
30.04.2015 23:26 6,3 C 5,0 C 87 % 1010,7 hPa 0,0 l/m 0 min 0 min 0 W/m 6,3 km/h (2 Bft)
30.04.2015 23:28 6,3 C 5,0 C 87 % 1010,6 hPa 0,0 l/m 0 min 0 min 0 W/m 4,2 km/h (1 Bft)
30.04.2015 23:30 6,2 C 5,0 C 87 % 1010,7 hPa 0,0 l/m 0 min 0 min 0 W/m 6,3 km/h (2 Bft)
30.04.2015 23:32 6,2 C 5,0 C 87 % 1010,6 hPa 0,0 l/m 0 min 0 min 0 W/m 6,3 km/h (2 Bft)
30.04.2015 23:34 6,2 C 5,0 C 87 % 1010,7 hPa 0,0 l/m 0 min 0 min 0 W/m 6,3 km/h (2 Bft)
30.04.2015 23:36 6,2 C 5,0 C 87 % 1010,7 hPa 0,0 l/m 0 min 0 min 0 W/m 6,3 km/h (2 Bft)
30.04.2015 23:38 6,1 C 5,0 C 87 % 1010,7 hPa 0,0 l/m 0 min 0 min 0 W/m 4,2 km/h (1 Bft)
30.04.2015 23:40 6,1 C 5,0 C 87 % 1010,7 hPa 0,0 l/m 0 min 0 min 0 W/m 8,4 km/h (2 Bft)
30.04.2015 23:42 6,1 C 5,0 C 87 % 1010,7 hPa 0,0 l/m 0 min 0 min 0 W/m 8,4 km/h (2 Bft)
30.04.2015 23:44 6,0 C 5,0 C 87 % 1010,7 hPa 0,0 l/m 0 min 0 min 0 W/m 10,5 km/h (2 Bft)
30.04.2015 23:46 6,0 C 5,0 C 87 % 1010,7 hPa 0,0 l/m 0 min 0 min 0 W/m 6,3 km/h (2 Bft)
30.04.2015 23:48 6,0 C 5,0 C 87 % 1010,7 hPa 0,0 l/m 0 min 0 min 0 W/m 6,3 km/h (2 Bft)
30.04.2015 23:50 5,9 C 5,0 C 88 % 1010,7 hPa 0,0 l/m 0 min 0 min 0 W/m 6,3 km/h (2 Bft)
30.04.2015 23:52 5,9 C 5,0 C 88 % 1010,7 hPa 0,0 l/m 0 min 0 min 0 W/m 6,3 km/h (2 Bft)
30.04.2015 23:54 5,9 C 5,0 C 88 % 1010,7 hPa 0,0 l/m 0 min 0 min 0 W/m 6,3 km/h (2 Bft)
30.04.2015 23:56 5,9 C 5,0 C 88 % 1010,7 hPa 0,0 l/m 0 min 0 min 0 W/m 8,4 km/h (2 Bft)
30.04.2015 23:58 5,9 C 5,0 C 88 % 1010,7 hPa 0,0 l/m 0 min 0 min 0 W/m 10,5 km/h (2 Bft)
_ Min-Zeit 23:50 23:00 17:46 19:04 - - - - 02:02
Minimum _ 5,9 C 5,0 C 68 % 1009,7 hPa - - - - 2,1 km/h (1 Bft)
_ Max-Zeit 18:44 16:20 07:18 01:30 04:38 06:42 02:52 10:08 18:58
Maximum _ 14,2 C 11,7 C 94 % 1013,9 hPa 0,2 l/m 2 min 2 min 859 W/m 41,8 km/h
W-SW (6 Bft)
Durchschnitt _ 9,7 C 8,2 C 80 % 1012,0 hPa #0,8 l/m #5:46 h #3:48 h 234 W/m 16,1 km/h (3 Bft)
© 2015 W. Hausmann